Observation data for Earth on 11/07/2019      Previous  Date       Current Mesonet Observations  Soil Data  Daily Summary Page  Observations in Plain Language
KEA1 070600Z 34004KT 12/11 A3019 RMK A01 T01150109  RH  096%=      5-min Rain = 0
KEA1 070601Z 32003KT 12/11 A3019 RMK A01 T01160110  RH  096%=      5-min Rain = 0
KEA1 070602Z 00003KT 12/11 A3019 RMK A01 T01150110  RH  096%=      5-min Rain = 0
KEA1 070603Z 00004KT 12/11 A302 RMK A01 T01150109  RH  096%=      5-min Rain = 0
KEA1 070604Z 36007KT 12/11 A302 RMK A01 T01150110  RH  097%=      5-min Rain = 0
KEA1 070605Z 00015G20KT 11/11 A302 RMK A01 T01140108  RH  096%=      5-min Rain = 0
KEA1 070606Z 00017KT 11/10 A302 RMK A01 T01060096  RH  093%=      5-min Rain = 0
KEA1 070607Z 01023KT 10/09 A3019 RMK A01 T00990086  RH  092%=      5-min Rain = 0
KEA1 070608Z 01026KT 10/08 A3019 RMK A01 T00950082  RH  092%=      5-min Rain = 0
KEA1 070609Z 02026G31KT 09/08 A3019 RMK A01 T00920077  RH  090%=      5-min Rain = 0
KEA1 070610Z 03026KT 09/07 A302 RMK A01 T00880071  RH  089%=      5-min Rain = 0
KEA1 070611Z 02025G31KT 08/07 A302 RMK A01 T00840066  RH  089%=      5-min Rain = 0
KEA1 070612Z 02023G28KT 08/06 A302 RMK A01 T00810063  RH  089%=      5-min Rain = 0
KEA1 070613Z 02019G25KT 08/06 A3021 RMK A01 T00780062  RH  090%=      5-min Rain = 0
KEA1 070614Z 02019G24KT 08/06 A3021 RMK A01 T00760061  RH  090%=      5-min Rain = 0
KEA1 070615Z 02018KT 07/06 A3021 RMK A01 T00740059  RH  090%=      5-min Rain = 0
KEA1 070616Z 02023KT 07/06 A3021 RMK A01 T00710055  RH  090%=      5-min Rain = 0
KEA1 070617Z 02023KT 07/05 A3021 RMK A01 T00670050  RH  089%=      5-min Rain = 0
KEA1 070618Z 02022KT 07/05 A3021 RMK A01 T00650048  RH  089%=      5-min Rain = 0
KEA1 070619Z 02024KT 06/05 A3021 RMK A01 T00630046  RH  089%=      5-min Rain = 0
KEA1 070620Z 02022G29KT 06/05 A3021 RMK A01 T00610045  RH  089%=      5-min Rain = 0
KEA1 070621Z 02022G27KT 06/04 A3021 RMK A01 T00600044  RH  090%=      5-min Rain = 0
KEA1 070622Z 02022G28KT 06/04 A3021 RMK A01 T00590044  RH  090%=      5-min Rain = 0
KEA1 070623Z 02023G28KT 06/04 A3021 RMK A01 T00580042  RH  090%=      5-min Rain = 0
KEA1 070624Z 03023KT 06/04 A302 RMK A01 T00570041  RH  089%=      5-min Rain = 0
KEA1 070625Z 02022G28KT 06/04 A302 RMK A01 T00570041  RH  090%=      5-min Rain = 0
KEA1 070626Z 03023KT 06/04 A302 RMK A01 T00560039  RH  089%=      5-min Rain = 0
KEA1 070627Z 03024G30KT 05/04 A302 RMK A01 T00540038  RH  089%=      5-min Rain = 0
KEA1 070628Z 03020G25KT 05/04 A302 RMK A01 T00540037  RH  089%=      5-min Rain = 0
KEA1 070629Z 03020G25KT 05/04 A302 RMK A01 T00530037  RH  089%=      5-min Rain = 0
KEA1 070630Z 03022G28KT 05/04 A302 RMK A01 T00520036  RH  089%=      5-min Rain = 0
KEA1 070631Z 02023G28KT 05/03 A302 RMK A01 T00510034  RH  089%=      5-min Rain = 0
KEA1 070632Z 02020G25KT 05/03 A302 RMK A01 T00500033  RH  089%=      5-min Rain = 0
KEA1 070633Z 02021KT 05/03 A302 RMK A01 T00480032  RH  089%=      5-min Rain = 0
KEA1 070634Z 02021KT 05/03 A3021 RMK A01 T00470032  RH  090%=      5-min Rain = 0
KEA1 070635Z 02019KT 05/03 A3021 RMK A01 T00460032  RH  090%=      5-min Rain = 0
KEA1 070636Z 02023KT 05/03 A3021 RMK A01 T00460032  RH  090%=      5-min Rain = 0
KEA1 070637Z 02021G26KT 05/03 A3021 RMK A01 T00450030  RH  090%=      5-min Rain = 0
KEA1 070638Z 03018KT 04/03 A3021 RMK A01 T00440029  RH  090%=      5-min Rain = 0
KEA1 070639Z 02021G26KT 04/03 A3021 RMK A01 T00430029  RH  090%=      5-min Rain = 0
KEA1 070640Z 02020KT 04/03 A3021 RMK A01 T00430028  RH  090%=      5-min Rain = 0
KEA1 070641Z 02018KT 04/03 A3022 RMK A01 T00420028  RH  090%=      5-min Rain = 0
KEA1 070642Z 02022KT 04/03 A3022 RMK A01 T00420027  RH  090%=      5-min Rain = 0
KEA1 070643Z 02021G26KT 04/03 A3023 RMK A01 T00410026  RH  090%=      5-min Rain = 0
KEA1 070644Z 02019KT 04/03 A3023 RMK A01 T00410025  RH  090%=      5-min Rain = 0
KEA1 070645Z 02019G24KT 04/03 A3024 RMK A01 T00410025  RH  090%=      5-min Rain = 0
KEA1 070646Z 01018G24KT 04/03 A3024 RMK A01 T00400025  RH  090%=      5-min Rain = 0
KEA1 070647Z 01024KT 04/02 A3024 RMK A01 T00390023  RH  089%=      5-min Rain = 0
KEA1 070648Z 01020KT 04/02 A3024 RMK A01 T00380021  RH  089%=      5-min Rain = 0
KEA1 070649Z 01019KT 04/02 A3025 RMK A01 T00380022  RH  089%=      5-min Rain = 0
KEA1 070650Z 01016KT 04/02 A3025 RMK A01 T00370022  RH  090%=      5-min Rain = 0
KEA1 070651Z 01017G23KT 04/02 A3025 RMK A01 T00370023  RH  091%=      5-min Rain = 0
KEA1 070652Z 01019G25KT 04/02 A3025 RMK A01 T00370022  RH  090%=      5-min Rain = 0
KEA1 070653Z 00019G24KT 04/02 A3026 RMK A01 T00360022  RH  090%=      5-min Rain = 0
KEA1 070654Z 02017KT 04/02 A3026 RMK A01 T00360022  RH  091%=      5-min Rain = 0
KEA1 070655Z 01021KT 04/02 A3026 RMK A01 T00350022  RH  091%=      5-min Rain = 0
KEA1 070656Z 01024KT 03/02 A3026 RMK A01 T00330018  RH  090%=      5-min Rain = 0
KEA1 070657Z 01023KT 03/02 A3026 RMK A01 T00320016  RH  089%=      5-min Rain = 0
KEA1 070658Z 01020G25KT 03/01 A3026 RMK A01 T00310014  RH  089%=      5-min Rain = 0
KEA1 070659Z 01017G22KT 03/02 A3027 RMK A01 T00310015  RH  089%=      5-min Rain = 0
KEA1 070700Z 01018G24KT 03/02 A3027 RMK A01 T00310016  RH  090%=      5-min Rain = 0
KEA1 070701Z 00017G22KT 03/02 A3027 RMK A01 T00310017  RH  090%=      5-min Rain = 0
KEA1 070702Z 01021KT 03/02 A3027 RMK A01 T00310016  RH  090%=      5-min Rain = 0
KEA1 070703Z 00018KT 03/02 A3027 RMK A01 T00300016  RH  090%=      5-min Rain = 0
KEA1 070704Z 00018KT 03/02 A3028 RMK A01 T00300016  RH  090%=      5-min Rain = 0
KEA1 070705Z 00023KT 03/02 A3028 RMK A01 T00300016  RH  090%=      5-min Rain = 0
KEA1 070706Z 36021KT 03/01 A3028 RMK A01 T00290014  RH  090%=      5-min Rain = 0
KEA1 070707Z 36014KT 03/01 A3028 RMK A01 T00290014  RH  090%=      5-min Rain = 0
KEA1 070708Z 35017G22KT 03/02 A3029 RMK A01 T00290016  RH  091%=      5-min Rain = 0
KEA1 070709Z 00021G26KT 03/02 A3029 RMK A01 T00290015  RH  091%=      5-min Rain = 0
KEA1 070710Z 36020KT 03/01 A3029 RMK A01 T00280014  RH  090%=      5-min Rain = 0
KEA1 070711Z 35019KT 03/01 A3029 RMK A01 T00280013  RH  090%=      5-min Rain = 0
KEA1 070712Z 36018G23KT 03/01 A3029 RMK A01 T00280014  RH  090%=      5-min Rain = 0
KEA1 070713Z 35020G25KT 03/01 A3029 RMK A01 T00280014  RH  091%=      5-min Rain = 0
KEA1 070714Z 36020G25KT 03/01 A303 RMK A01 T00270013  RH  090%=      5-min Rain = 0
KEA1 070715Z 36017G22KT 03/01 A303 RMK A01 T00280013  RH  090%=      5-min Rain = 0
KEA1 070716Z 00020G25KT 03/01 A303 RMK A01 T00270013  RH  091%=      5-min Rain = 0
KEA1 070717Z 36021KT 03/01 A303 RMK A01 T00270012  RH  090%=      5-min Rain = 0
KEA1 070718Z 00019KT 03/01 A303 RMK A01 T00260012  RH  090%=      5-min Rain = 0
KEA1 070719Z 36019KT 03/01 A303 RMK A01 T00260012  RH  091%=      5-min Rain = 0
KEA1 070720Z 35020KT 03/01 A303 RMK A01 T00260013  RH  091%=      5-min Rain = 0
KEA1 070721Z 35019G29KT 03/01 A303 RMK A01 T00260013  RH  091%=      5-min Rain = 0
KEA1 070722Z 35022G27KT 03/01 A303 RMK A01 T00260013  RH  091%=      5-min Rain = 0
KEA1 070723Z 36021G26KT 03/01 A303 RMK A01 T00260012  RH  091%=      5-min Rain = 0
KEA1 070724Z 36019KT 03/01 A303 RMK A01 T00260012  RH  091%=      5-min Rain = 0
KEA1 070725Z 35019KT 03/01 A303 RMK A01 T00260013  RH  091%=      5-min Rain = 0
KEA1 070726Z 35016KT 03/01 A303 RMK A01 T00260013  RH  091%=      5-min Rain = 0
KEA1 070727Z 35017KT 03/01 A303 RMK A01 T00260013  RH  091%=      5-min Rain = 0
KEA1 070728Z 35025KT 03/01 A3029 RMK A01 T00250013  RH  091%=      5-min Rain = 0
KEA1 070729Z 00020KT 03/01 A3029 RMK A01 T00250012  RH  091%=      5-min Rain = 0
KEA1 070730Z 00022KT 03/01 A303 RMK A01 T00250012  RH  091%=      5-min Rain = 0
KEA1 070731Z 35021KT 03/01 A303 RMK A01 T00250012  RH  091%=      5-min Rain = 0
KEA1 070732Z 36023G28KT 03/01 A303 RMK A01 T00250011  RH  091%=      5-min Rain = 0
KEA1 070733Z 35019KT 02/01 A303 RMK A01 T00240010  RH  091%=      5-min Rain = 0
KEA1 070734Z 35021G28KT 02/01 A303 RMK A01 T00230009  RH  091%=      5-min Rain = 0
KEA1 070735Z 00022G28KT 02/01 A303 RMK A01 T00220009  RH  091%=      5-min Rain = 0
KEA1 070736Z 00023G29KT 02/01 A303 RMK A01 T00220008  RH  091%=      5-min Rain = 0
KEA1 070737Z 00022G27KT 02/01 A3029 RMK A01 T00210007  RH  091%=      5-min Rain = 0
KEA1 070738Z 01021KT 02/01 A3029 RMK A01 T00210007  RH  091%=      5-min Rain = 0
KEA1 070739Z 00023KT 02/01 A3029 RMK A01 T00200007  RH  091%=      5-min Rain = 0
KEA1 070740Z 01022KT 02/01 A3029 RMK A01 T00200007  RH  091%=      5-min Rain = 0
KEA1 070741Z 01022KT 02/01 A3029 RMK A01 T00190006  RH  091%=      5-min Rain = 0
KEA1 070742Z 01019G25KT 02/01 A3029 RMK A01 T00190006  RH  091%=      5-min Rain = 0
KEA1 070743Z 01023KT 02/01 A3029 RMK A01 T00190006  RH  092%=      5-min Rain = 0
KEA1 070744Z 01024KT 02/01 A3029 RMK A01 T00190007  RH  092%=      5-min Rain = 0
KEA1 070745Z 01024KT 02/01 A3028 RMK A01 T00190006  RH  091%=      5-min Rain = 0
KEA1 070746Z 01019G25KT 02/01 A3029 RMK A01 T00180005  RH  091%=      5-min Rain = 0
KEA1 070747Z 01016KT 02/01 A3029 RMK A01 T00190006  RH  092%=      5-min Rain = 0
KEA1 070748Z 01017KT 02/01 A3029 RMK A01 T00180007  RH  092%=      5-min Rain = 0
KEA1 070749Z 01022KT 02/01 A3029 RMK A01 T00180007  RH  092%=      5-min Rain = 0
KEA1 070750Z 01017KT 02/01 A3029 RMK A01 T00180006  RH  092%=      5-min Rain = 0
KEA1 070751Z 01020G25KT 02/01 A3029 RMK A01 T00180006  RH  092%=      5-min Rain = 0
KEA1 070752Z 01020KT 02/01 A3029 RMK A01 T00180007  RH  092%=      5-min Rain = 0
KEA1 070753Z 01016KT 02/01 A303 RMK A01 T00180007  RH  092%=      5-min Rain = 0
KEA1 070754Z 01013G19KT 02/01 A303 RMK A01 T00180007  RH  093%=      5-min Rain = 0
KEA1 070755Z 01019KT 02/01 A303 RMK A01 T00180007  RH  093%=      5-min Rain = 0
KEA1 070756Z 01018KT 02/01 A303 RMK A01 T00180007  RH  093%=      5-min Rain = 0
KEA1 070757Z 01019KT 02/01 A303 RMK A01 T00170007  RH  093%=      5-min Rain = 0
KEA1 070758Z 01017KT 02/01 A303 RMK A01 T00170007  RH  093%=      5-min Rain = 0
KEA1 070759Z 01018KT 02/01 A303 RMK A01 T00170007  RH  093%=      5-min Rain = 0
KEA1 070800Z 01018KT 02/01 A303 RMK A01 T00170007  RH  093%=      5-min Rain = 0
KEA1 070801Z 01018KT 02/01 A303 RMK A01 T00160007  RH  093%=      5-min Rain = 0
KEA1 070802Z 01018G23KT 02/01 A303 RMK A01 T00160007  RH  093%=      5-min Rain = 0
KEA1 070803Z 01016KT 02/01 A303 RMK A01 T00160007  RH  094%=      5-min Rain = 0
KEA1 070804Z 01017KT 02/01 A3029 RMK A01 T00160007  RH  094%=      5-min Rain = 0
KEA1 070805Z 01016G22KT 02/01 A3029 RMK A01 T00160007  RH  094%=      5-min Rain = 0
KEA1 070806Z 02018KT 02/01 A3029 RMK A01 T00160007  RH  094%=      5-min Rain = 0
KEA1 070807Z 02018KT 02/01 A3029 RMK A01 T00160007  RH  094%=      5-min Rain = 0
KEA1 070808Z 01017G23KT 02/01 A3029 RMK A01 T00160007  RH  094%=      5-min Rain = 0
KEA1 070809Z 01018G24KT 02/01 A3029 RMK A01 T00160007  RH  094%=      5-min Rain = 0
KEA1 070810Z 01023KT 02/01 A3029 RMK A01 T00150007  RH  094%=      5-min Rain = 0
KEA1 070811Z 02023KT 01/01 A3029 RMK A01 T00140005  RH  094%=      5-min Rain = 0
KEA1 070812Z 01024KT 01/00 A3029 RMK A01 T00130003  RH  093%=      5-min Rain = 0
KEA1 070813Z 02021KT 01/00 A3029 RMK A01 T00120002  RH  093%=      5-min Rain = 0
KEA1 070814Z 02019KT 01/00 A3029 RMK A01 T00110002  RH  093%=      5-min Rain = 0
KEA1 070815Z 01017G22KT 01/00 A3029 RMK A01 T00120003  RH  094%=      5-min Rain = 0
KEA1 070816Z 01017G22KT 01/00 A303 RMK A01 T00120003  RH  094%=      5-min Rain = 0
KEA1 070817Z 01024KT 01/00 A303 RMK A01 T00120003  RH  094%=      5-min Rain = 0
KEA1 070818Z 01019KT 01/00 A303 RMK A01 T00120003  RH  094%=      5-min Rain = 0
KEA1 070819Z 02016G22KT 01/00 A303 RMK A01 T00110003  RH  094%=      5-min Rain = 0
KEA1 070820Z 02021G26KT 01/00 A3029 RMK A01 T00120003  RH  094%=      5-min Rain = 0
KEA1 070821Z 01020KT 01/00 A3029 RMK A01 T00110003  RH  094%=      5-min Rain = 0
KEA1 070822Z 01020KT 01/00 A3029 RMK A01 T00110003  RH  094%=      5-min Rain = 0
KEA1 070823Z 02017KT 01/00 A3029 RMK A01 T00110003  RH  094%=      5-min Rain = 0
KEA1 070824Z 02016G21KT 01/00 A3029 RMK A01 T00110003  RH  094%=      5-min Rain = 0
KEA1 070825Z 01019G24KT 01/00 A3029 RMK A01 T00110004  RH  095%=      5-min Rain = 0
KEA1 070826Z 02020KT 01/00 A303 RMK A01 T00110003  RH  095%=      5-min Rain = 0
KEA1 070827Z 01016G21KT 01/00 A303 RMK A01 T00110003  RH  095%=      5-min Rain = 0
KEA1 070828Z 01021KT 01/00 A303 RMK A01 T00110003  RH  095%=      5-min Rain = 0
KEA1 070829Z 00021KT 01/00 A3031 RMK A01 T00110003  RH  095%=      5-min Rain = 0
KEA1 070830Z 00018G24KT 01/00 A3031 RMK A01 T00110003  RH  094%=      5-min Rain = 0
KEA1 070831Z 00021KT 01/00 A3031 RMK A01 T00110002  RH  094%=      5-min Rain = 0
KEA1 070832Z 36017KT 01/00 A3032 RMK A01 T00110003  RH  094%=      5-min Rain = 0
KEA1 070833Z 36017KT 01/00 A3033 RMK A01 T00100002  RH  095%=      5-min Rain = 0
KEA1 070834Z 35019G24KT 01/00 A3033 RMK A01 T00100002  RH  095%=      5-min Rain = 0
KEA1 070835Z 35020KT 01/00 A3034 RMK A01 T00100002  RH  095%=      5-min Rain = 0
KEA1 070836Z 35019KT 01/00 A3034 RMK A01 T00090002  RH  095%=      5-min Rain = 0
KEA1 070837Z 36018KT 01/00 A3034 RMK A01 T00090001  RH  095%=      5-min Rain = 0
KEA1 070838Z 36020KT 01/00 A3034 RMK A01 T00090001  RH  095%=      5-min Rain = 0
KEA1 070839Z 35016KT 01/00 A3033 RMK A01 T00080000  RH  095%=      5-min Rain = 0
KEA1 070840Z 36018KT 01/00 A3033 RMK A01 T00080000  RH  095%=      5-min Rain = 0
KEA1 070841Z 00020G26KT 01/00 A3033 RMK A01 T000700-0  RH  095%=      5-min Rain = 0
KEA1 070842Z 36020KT 01/M00 A3033 RMK A01 T00071001  RH  095%=      5-min Rain = 0.01
KEA1 070843Z 36023KT 01/M00 A3032 RMK A01 T00071001  RH  095%=      5-min Rain = 0
KEA1 070844Z 36021KT 01/M00 A3033 RMK A01 T00061001  RH  095%=      5-min Rain = 0
KEA1 070845Z 00020G26KT 01/M00 A3033 RMK A01 T00061001  RH  095%=      5-min Rain = 0
KEA1 070846Z 35022G29KT 01/M00 A3033 RMK A01 T00061001  RH  095%=      5-min Rain = 0
KEA1 070847Z 00025KT 01/M00 A3033 RMK A01 T00051002  RH  095%=      5-min Rain = 0
KEA1 070848Z 00024G29KT 01/M00 A3033 RMK A01 T00051002  RH  095%=      5-min Rain = 0
KEA1 070849Z 01021G28KT 00/M00 A3033 RMK A01 T00041003  RH  095%=      5-min Rain = 0
KEA1 070850Z 36020KT 00/M00 A3033 RMK A01 T00041003  RH  095%=      5-min Rain = 0
KEA1 070851Z 01024G29KT 00/M00 A3033 RMK A01 T00041003  RH  095%=      5-min Rain = 0
KEA1 070852Z 00021KT 00/M00 A3033 RMK A01 T00041003  RH  095%=      5-min Rain = 0
KEA1 070853Z 01018KT 00/M00 A3033 RMK A01 T00041003  RH  095%=      5-min Rain = 0
KEA1 070854Z 01018KT 00/M00 A3033 RMK A01 T00041003  RH  095%=      5-min Rain = 0
KEA1 070855Z 01021KT 00/M00 A3033 RMK A01 T00041003  RH  096%=      5-min Rain = 0
KEA1 070856Z 01020G25KT 00/M00 A3033 RMK A01 T00041003  RH  096%=      5-min Rain = 0
KEA1 070857Z 01020KT 00/M00 A3033 RMK A01 T00041003  RH  096%=      5-min Rain = 0.01
KEA1 070858Z 02020G25KT 00/M00 A3033 RMK A01 T00041002  RH  096%=      5-min Rain = 0
KEA1 070859Z 01020G25KT 00/M00 A3032 RMK A01 T00041002  RH  096%=      5-min Rain = 0
KEA1 070900Z 01019G24KT 00/M00 A3032 RMK A01 T00041002  RH  096%=      5-min Rain = 0
KEA1 070901Z 01022G27KT 00/M00 A3032 RMK A01 T00041002  RH  096%=      5-min Rain = 0
KEA1 070902Z 01022G28KT 00/M00 A3032 RMK A01 T00041002  RH  096%=      5-min Rain = 0
KEA1 070903Z 01022KT 00/M00 A3032 RMK A01 T00041002  RH  096%=      5-min Rain = 0
KEA1 070904Z 01022G28KT 00/M00 A3031 RMK A01 T00041002  RH  096%=      5-min Rain = 0
KEA1 070905Z 01021KT 00/M00 A3031 RMK A01 T00041002  RH  096%=      5-min Rain = 0
KEA1 070906Z 01021KT 00/M00 A3031 RMK A01 T00031003  RH  096%=      5-min Rain = 0
KEA1 070907Z 01021KT 00/M00 A3031 RMK A01 T00031003  RH  096%=      5-min Rain = 0
KEA1 070908Z 01020KT 00/M00 A3031 RMK A01 T00031003  RH  096%=      5-min Rain = 0
KEA1 070909Z 01018KT 00/M00 A3031 RMK A01 T00041002  RH  096%=      5-min Rain = 0
KEA1 070910Z 01016KT 00/M00 A3031 RMK A01 T00031003  RH  096%=      5-min Rain = 0
KEA1 070911Z 00019KT 00/M00 A3031 RMK A01 T00041002  RH  096%=      5-min Rain = 0
KEA1 070912Z 00020G27KT 00/M00 A303 RMK A01 T00041002  RH  096%=      5-min Rain = 0
KEA1 070913Z 01024KT 00/M00 A303 RMK A01 T00041002  RH  096%=      5-min Rain = 0
KEA1 070914Z 01022G27KT 00/M00 A303 RMK A01 T00031003  RH  096%=      5-min Rain = 0
KEA1 070915Z 01020KT 00/M00 A303 RMK A01 T00031003  RH  096%=      5-min Rain = 0
KEA1 070916Z 01023KT 00/M00 A303 RMK A01 T00031003  RH  096%=      5-min Rain = 0
KEA1 070917Z 01020KT 00/M00 A303 RMK A01 T00021004  RH  096%=      5-min Rain = 0
KEA1 070918Z 02021KT 00/M00 A303 RMK A01 T00031003  RH  096%=      5-min Rain = 0
KEA1 070919Z 02023KT 00/M00 A303 RMK A01 T00021004  RH  096%=      5-min Rain = 0
KEA1 070920Z 01024KT 00/M00 A303 RMK A01 T00021004  RH  096%=      5-min Rain = 0
KEA1 070921Z 01026KT 00/M01 A303 RMK A01 T00011005  RH  096%=      5-min Rain = 0
KEA1 070922Z 01028G33KT 00/01 A3029 RMK A01 T000000-6  RH  096%=      5-min Rain = 0.01
KEA1 070923Z 01025KT 00/01 A3029 RMK A01 T000000-6  RH  096%=      5-min Rain = 0
KEA1 070924Z 02026KT 00/01 A3029 RMK A01 T000000-6  RH  096%=      5-min Rain = 0
KEA1 070925Z 02026G33KT 00/01 A3028 RMK A01 T00-000-6  RH  096%=      5-min Rain = 0
KEA1 070926Z 02026G31KT M00/M01 A3028 RMK A01 T10011007  RH  096%=      5-min Rain = 0
KEA1 070927Z 01025KT M00/M01 A3028 RMK A01 T10011007  RH  096%=      5-min Rain = 0
KEA1 070928Z 01023KT M00/M01 A3029 RMK A01 T10011008  RH  095%=      5-min Rain = 0
KEA1 070929Z 01024G29KT M00/M01 A3029 RMK A01 T10011008  RH  095%=      5-min Rain = 0
KEA1 070930Z 01027KT M00/M01 A3028 RMK A01 T10011007  RH  095%=      5-min Rain = 0
KEA1 070931Z 02025KT M00/M01 A3028 RMK A01 T10021008  RH  095%=      5-min Rain = 0
KEA1 070932Z 02020G25KT M00/M01 A3029 RMK A01 T10021008  RH  095%=      5-min Rain = 0
KEA1 070933Z 02019G25KT M00/M01 A3029 RMK A01 T10011007  RH  096%=      5-min Rain = 0
KEA1 070934Z 02023KT M00/M01 A3028 RMK A01 T10011007  RH  096%=      5-min Rain = 0
KEA1 070935Z 02023KT M00/M01 A3028 RMK A01 T10011008  RH  096%=      5-min Rain = 0
KEA1 070936Z 01023G28KT M00/M01 A3028 RMK A01 T10011007  RH  096%=      5-min Rain = 0
KEA1 070937Z 02023KT M00/M01 A3029 RMK A01 T10011007  RH  096%=      5-min Rain = 0
KEA1 070938Z 01023KT M00/M01 A303 RMK A01 T10011007  RH  096%=      5-min Rain = 0
KEA1 070939Z 01021G26KT M00/M01 A3031 RMK A01 T10011007  RH  096%=      5-min Rain = 0
KEA1 070940Z 00019G24KT M00/M01 A3032 RMK A01 T10011007  RH  096%=      5-min Rain = 0
KEA1 070941Z 36015KT M00/M01 A3033 RMK A01 T10011007  RH  096%=      5-min Rain = 0
KEA1 070942Z 36018G25KT M00/M01 A3033 RMK A01 T10011006  RH  096%=      5-min Rain = 0
KEA1 070943Z 36021KT 00/01 A3033 RMK A01 T00-000-6  RH  096%=      5-min Rain = 0
KEA1 070944Z 01017G24KT M00/M01 A3032 RMK A01 T10011007  RH  096%=      5-min Rain = 0
KEA1 070945Z 01020G29KT M00/M01 A3032 RMK A01 T10011007  RH  096%=      5-min Rain = 0
KEA1 070946Z 01023KT M00/M01 A3032 RMK A01 T10011007  RH  096%=      5-min Rain = 0
KEA1 070947Z 00024KT M00/M01 A3032 RMK A01 T10021008  RH  096%=      5-min Rain = 0
KEA1 070948Z 36017G22KT M00/M01 A3033 RMK A01 T10021008  RH  096%=      5-min Rain = 0
KEA1 070949Z 00017KT M00/M01 A3033 RMK A01 T10011007  RH  096%=      5-min Rain = 0
KEA1 070950Z 00018KT M00/M01 A3033 RMK A01 T10011007  RH  096%=      5-min Rain = 0
KEA1 070951Z 00021KT M00/M01 A3033 RMK A01 T10011007  RH  096%=      5-min Rain = 0
KEA1 070952Z 01021KT M00/M01 A3032 RMK A01 T10021008  RH  096%=      5-min Rain = 0
KEA1 070953Z 01022KT M00/M01 A3032 RMK A01 T10021008  RH  096%=      5-min Rain = 0
KEA1 070954Z 01020KT M00/M01 A3032 RMK A01 T10021009  RH  095%=      5-min Rain = 0
KEA1 070955Z 00019KT M00/M01 A3033 RMK A01 T10031009  RH  095%=      5-min Rain = 0
KEA1 070956Z 01021KT M00/M01 A3032 RMK A01 T10031009  RH  095%=      5-min Rain = 0
KEA1 070957Z 01023KT M00/M01 A3032 RMK A01 T10031009  RH  095%=      5-min Rain = 0
KEA1 070958Z 01022G27KT M00/M01 A3032 RMK A01 T10031009  RH  095%=      5-min Rain = 0
KEA1 070959Z 01017G23KT M00/M01 A3033 RMK A01 T10031009  RH  095%=      5-min Rain = 0
KEA1 071000Z 01019KT M00/M01 A3032 RMK A01 T10031009  RH  095%=      5-min Rain = 0
KEA1 071001Z 00022G28KT M00/M01 A3032 RMK A01 T10021009  RH  096%=      5-min Rain = 0
KEA1 071002Z 01023G28KT M00/M01 A3032 RMK A01 T10021009  RH  096%=      5-min Rain = 0
KEA1 071003Z 01027KT M00/M01 A3031 RMK A01 T10031009  RH  095%=      5-min Rain = 0
KEA1 071004Z 01024KT M00/M01 A3031 RMK A01 T10031010  RH  095%=      5-min Rain = 0
KEA1 071005Z 01020KT M00/M01 A3032 RMK A01 T10031010  RH  095%=      5-min Rain = 0
KEA1 071006Z 01016KT M00/M01 A3032 RMK A01 T10031010  RH  095%=      5-min Rain = 0
KEA1 071007Z 01021G29KT M00/M01 A3032 RMK A01 T10031010  RH  095%=      5-min Rain = 0
KEA1 071008Z 00022G28KT M00/M01 A3032 RMK A01 T10031010  RH  095%=      5-min Rain = 0
KEA1 071009Z 01021KT M00/M01 A3032 RMK A01 T10031010  RH  095%=      5-min Rain = 0
KEA1 071010Z 00024KT M00/M01 A3032 RMK A01 T10031010  RH  095%=      5-min Rain = 0
KEA1 071011Z 00023G28KT M00/M01 A3032 RMK A01 T10031010  RH  095%=      5-min Rain = 0
KEA1 071012Z 00023KT M00/M01 A3032 RMK A01 T10031010  RH  095%=      5-min Rain = 0
KEA1 071013Z 01021KT M00/M01 A3032 RMK A01 T10031011  RH  095%=      5-min Rain = 0
KEA1 071014Z 01022KT M00/M01 A3032 RMK A01 T10031011  RH  095%=      5-min Rain = 0
KEA1 071015Z 01022KT M00/M01 A3031 RMK A01 T10041011  RH  095%=      5-min Rain = 0
KEA1 071016Z 01021KT M00/M01 A3031 RMK A01 T10041011  RH  095%=      5-min Rain = 0
KEA1 071017Z 01021KT M00/M01 A3031 RMK A01 T10041011  RH  095%=      5-min Rain = 0
KEA1 071018Z 01021KT M00/M01 A3031 RMK A01 T10031011  RH  095%=      5-min Rain = 0
KEA1 071019Z 01017KT M00/M01 A3031 RMK A01 T10041011  RH  095%=      5-min Rain = 0
KEA1 071020Z 01022KT M00/M01 A3031 RMK A01 T10041011  RH  095%=      5-min Rain = 0
KEA1 071021Z 01021G26KT M00/M01 A3031 RMK A01 T10041011  RH  095%=      5-min Rain = 0
KEA1 071022Z 01019G24KT M00/M01 A3031 RMK A01 T10041010  RH  095%=      5-min Rain = 0
KEA1 071023Z 01018G24KT M00/M01 A3031 RMK A01 T10031010  RH  095%=      5-min Rain = 0
KEA1 071024Z 01022G27KT M00/M01 A303 RMK A01 T10041010  RH  095%=      5-min Rain = 0
KEA1 071025Z 01022G27KT M00/M01 A303 RMK A01 T10041011  RH  095%=      5-min Rain = 0
KEA1 071026Z 01019G24KT M01/M01 A3031 RMK A01 T10051012  RH  095%=      5-min Rain = 0
KEA1 071027Z 36020KT M01/M01 A3031 RMK A01 T10051011  RH  095%=      5-min Rain = 0
KEA1 071028Z 00023KT M01/M01 A3031 RMK A01 T10051011  RH  095%=      5-min Rain = 0
KEA1 071029Z 00020KT M01/M01 A3031 RMK A01 T10051012  RH  095%=      5-min Rain = 0
KEA1 071030Z 00022KT M01/M01 A3031 RMK A01 T10051012  RH  095%=      5-min Rain = 0
KEA1 071031Z 36023KT M01/M01 A3031 RMK A01 T10061012  RH  095%=      5-min Rain = 0
KEA1 071032Z 00023KT M01/M01 A3031 RMK A01 T10061013  RH  095%=      5-min Rain = 0
KEA1 071033Z 36021KT M01/M01 A3032 RMK A01 T10061012  RH  095%=      5-min Rain = 0
KEA1 071034Z 00022KT M01/M01 A3032 RMK A01 T10061013  RH  095%=      5-min Rain = 0
KEA1 071035Z 36018KT M01/M01 A3033 RMK A01 T10061012  RH  095%=      5-min Rain = 0
KEA1 071036Z 00019KT M01/M01 A3033 RMK A01 T10051012  RH  095%=      5-min Rain = 0
KEA1 071037Z 36019KT M01/M01 A3033 RMK A01 T10051012  RH  095%=      5-min Rain = 0
KEA1 071038Z 36018G26KT M01/M01 A3033 RMK A01 T10051012  RH  095%=      5-min Rain = 0
KEA1 071039Z 00022G29KT M01/M01 A3033 RMK A01 T10051011  RH  095%=      5-min Rain = 0
KEA1 071040Z 00026KT M01/M01 A3033 RMK A01 T10051012  RH  095%=      5-min Rain = 0
KEA1 071041Z 00023KT M01/M01 A3033 RMK A01 T10051012  RH  095%=      5-min Rain = 0
KEA1 071042Z 36022G28KT M01/M01 A3033 RMK A01 T10061013  RH  095%=      5-min Rain = 0
KEA1 071043Z 01019G25KT M01/M01 A3033 RMK A01 T10061013  RH  095%=      5-min Rain = 0
KEA1 071044Z 00022G29KT M01/M01 A3033 RMK A01 T10061013  RH  095%=      5-min Rain = 0
KEA1 071045Z 00022G27KT M01/M01 A3033 RMK A01 T10061014  RH  095%=      5-min Rain = 0
KEA1 071046Z 01026G31KT M01/M01 A3032 RMK A01 T10071014  RH  094%=      5-min Rain = 0
KEA1 071047Z 01024G29KT M01/M02 A3032 RMK A01 T10071015  RH  094%=      5-min Rain = 0
KEA1 071048Z 01027KT M01/M02 A3032 RMK A01 T10071015  RH  094%=      5-min Rain = 0
KEA1 071049Z 01027G32KT M01/M02 A3032 RMK A01 T10071016  RH  094%=      5-min Rain = 0
KEA1 071050Z 01024G29KT M01/M02 A3032 RMK A01 T10071016  RH  094%=      5-min Rain = 0
KEA1 071051Z 01020G27KT M01/M02 A3033 RMK A01 T10071016  RH  094%=      5-min Rain = 0
KEA1 071052Z 01022G27KT M01/M02 A3033 RMK A01 T10071016  RH  094%=      5-min Rain = 0
KEA1 071053Z 36022G31KT M01/M02 A3033 RMK A01 T10071015  RH  094%=      5-min Rain = 0
KEA1 071054Z 00021G27KT M01/M02 A3033 RMK A01 T10071015  RH  094%=      5-min Rain = 0
KEA1 071055Z 00020G27KT M01/M02 A3034 RMK A01 T10061015  RH  094%=      5-min Rain = 0
KEA1 071056Z 01022G27KT M01/M02 A3033 RMK A01 T10071015  RH  094%=      5-min Rain = 0
KEA1 071057Z 01024KT M01/M02 A3033 RMK A01 T10071015  RH  094%=      5-min Rain = 0
KEA1 071058Z 01022KT M01/M02 A3033 RMK A01 T10071016  RH  094%=      5-min Rain = 0
KEA1 071059Z 01020G25KT M01/M02 A3033 RMK A01 T10071015  RH  094%=      5-min Rain = 0
KEA1 071100Z 01021KT M01/M02 A3033 RMK A01 T10071016  RH  094%=      5-min Rain = 0
KEA1 071101Z 01025G31KT M01/M02 A3033 RMK A01 T10071016  RH  094%=      5-min Rain = 0
KEA1 071102Z 01023KT M01/M02 A3033 RMK A01 T10071016  RH  094%=      5-min Rain = 0
KEA1 071103Z 01019KT M01/M02 A3034 RMK A01 T10061016  RH  094%=      5-min Rain = 0
KEA1 071104Z 00021KT M01/M02 A3034 RMK A01 T10071016  RH  094%=      5-min Rain = 0
KEA1 071105Z 01019KT M01/M02 A3034 RMK A01 T10071016  RH  094%=      5-min Rain = 0
KEA1 071106Z 01017G22KT M01/M02 A3034 RMK A01 T10071015  RH  094%=      5-min Rain = 0
KEA1 071107Z 01020G25KT M01/M02 A3034 RMK A01 T10071015  RH  094%=      5-min Rain = 0
KEA1 071108Z 01019G25KT M01/M02 A3034 RMK A01 T10071015  RH  094%=      5-min Rain = 0
KEA1 071109Z 00021KT M01/M02 A3034 RMK A01 T10071015  RH  094%=      5-min Rain = 0
KEA1 071110Z 00023KT M01/M02 A3034 RMK A01 T10071015  RH  094%=      5-min Rain = 0
KEA1 071111Z 01020G25KT M01/M02 A3034 RMK A01 T10071015  RH  094%=      5-min Rain = 0
KEA1 071112Z 00022G27KT M01/M02 A3034 RMK A01 T10071016  RH  094%=      5-min Rain = 0
KEA1 071113Z 00021G26KT M01/M02 A3035 RMK A01 T10071016  RH  094%=      5-min Rain = 0
KEA1 071114Z 00020KT M01/M02 A3035 RMK A01 T10071016  RH  094%=      5-min Rain = 0
KEA1 071115Z 36019KT M01/M02 A3035 RMK A01 T10071016  RH  094%=      5-min Rain = 0
KEA1 071116Z 01020G25KT M01/M02 A3035 RMK A01 T10071016  RH  094%=      5-min Rain = 0
KEA1 071117Z 01017KT M01/M02 A3035 RMK A01 T10071016  RH  094%=      5-min Rain = 0
KEA1 071118Z 01015G22KT M01/M02 A3035 RMK A01 T10071016  RH  094%=      5-min Rain = 0
KEA1 071119Z 01021KT M01/M02 A3034 RMK A01 T10071015  RH  094%=      5-min Rain = 0
KEA1 071120Z 36020G26KT M01/M02 A3035 RMK A01 T10071015  RH  094%=      5-min Rain = 0
KEA1 071121Z 00020G27KT M01/M02 A3035 RMK A01 T10071015  RH  094%=      5-min Rain = 0
KEA1 071122Z 01022G27KT M01/M02 A3034 RMK A01 T10071016  RH  094%=      5-min Rain = 0
KEA1 071123Z 01017G22KT M01/M02 A3035 RMK A01 T10081016  RH  094%=      5-min Rain = 0
KEA1 071124Z 01018KT M01/M02 A3035 RMK A01 T10081016  RH  094%=      5-min Rain = 0
KEA1 071125Z 01017KT M01/M02 A3035 RMK A01 T10081016  RH  094%=      5-min Rain = 0
KEA1 071126Z 01016KT M01/M02 A3035 RMK A01 T10071016  RH  094%=      5-min Rain = 0
KEA1 071127Z 01016KT M01/M02 A3035 RMK A01 T10081015  RH  094%=      5-min Rain = 0
KEA1 071128Z 01020KT M01/M02 A3035 RMK A01 T10071015  RH  095%=      5-min Rain = 0
KEA1 071129Z 01016KT M01/M02 A3035 RMK A01 T10071015  RH  095%=      5-min Rain = 0
KEA1 071130Z 01019KT M01/M02 A3035 RMK A01 T10071015  RH  095%=      5-min Rain = 0
KEA1 071131Z 01015KT M01/M02 A3035 RMK A01 T10071015  RH  094%=      5-min Rain = 0
KEA1 071132Z 01016KT M01/M02 A3035 RMK A01 T10071015  RH  095%=      5-min Rain = 0
KEA1 071133Z 01019G25KT M01/M02 A3035 RMK A01 T10071015  RH  095%=      5-min Rain = 0
KEA1 071134Z 01018KT M01/M02 A3035 RMK A01 T10071015  RH  095%=      5-min Rain = 0
KEA1 071135Z 01019G24KT M01/M02 A3035 RMK A01 T10081016  RH  094%=      5-min Rain = 0
KEA1 071136Z 01022G28KT M01/M02 A3035 RMK A01 T10081016  RH  094%=      5-min Rain = 0
KEA1 071137Z 01019G24KT M01/M02 A3035 RMK A01 T10081016  RH  094%=      5-min Rain = 0
KEA1 071138Z 00019KT M01/M02 A3035 RMK A01 T10081016  RH  094%=      5-min Rain = 0
KEA1 071139Z 00019KT M01/M02 A3035 RMK A01 T10081016  RH  095%=      5-min Rain = 0
KEA1 071140Z 01017G22KT M01/M02 A3035 RMK A01 T10081016  RH  095%=      5-min Rain = 0
KEA1 071141Z 01018KT M01/M02 A3035 RMK A01 T10081015  RH  095%=      5-min Rain = 0
KEA1 071142Z 00019KT M01/M02 A3036 RMK A01 T10081015  RH  095%=      5-min Rain = 0
KEA1 071143Z 01020KT M01/M02 A3035 RMK A01 T10081015  RH  095%=      5-min Rain = 0
KEA1 071144Z 00019KT M01/M02 A3036 RMK A01 T10081016  RH  094%=      5-min Rain = 0
KEA1 071145Z 00019KT M01/M02 A3035 RMK A01 T10081015  RH  094%=      5-min Rain = 0
KEA1 071146Z 00019KT M01/M02 A3035 RMK A01 T10081016  RH  094%=      5-min Rain = 0
KEA1 071147Z 01019KT M01/M02 A3035 RMK A01 T10081016  RH  094%=      5-min Rain = 0
KEA1 071148Z 01020G25KT M01/M02 A3035 RMK A01 T10081016  RH  094%=      5-min Rain = 0
KEA1 071149Z 01021G26KT M01/M02 A3035 RMK A01 T10081016  RH  094%=      5-min Rain = 0
KEA1 071150Z 01020G25KT M01/M02 A3035 RMK A01 T10081017  RH  094%=      5-min Rain = 0
KEA1 071151Z 01021KT M01/M02 A3035 RMK A01 T10091017  RH  094%=      5-min Rain = 0
KEA1 071152Z 00016KT M01/M02 A3035 RMK A01 T10091017  RH  094%=      5-min Rain = 0
KEA1 071153Z 00021G27KT M01/M02 A3035 RMK A01 T10081016  RH  094%=      5-min Rain = 0
KEA1 071154Z 01022G27KT M01/M02 A3035 RMK A01 T10081017  RH  094%=      5-min Rain = 0
KEA1 071155Z 00020KT M01/M02 A3035 RMK A01 T10091017  RH  094%=      5-min Rain = 0
KEA1 071156Z 36021KT M01/M02 A3035 RMK A01 T10091017  RH  094%=      5-min Rain = 0
KEA1 071157Z 00022G28KT M01/M02 A3035 RMK A01 T10091017  RH  094%=      5-min Rain = 0
KEA1 071158Z 01019KT M01/M02 A3036 RMK A01 T10091018  RH  094%=      5-min Rain = 0
KEA1 071159Z 01019G24KT M01/M02 A3036 RMK A01 T10101018  RH  094%=      5-min Rain = 0
KEA1 071200Z 00021KT M01/M02 A3036 RMK A01 T10101018  RH  094%=      5-min Rain = 0
KEA1 071201Z 00023G30KT M01/M02 A3036 RMK A01 T10091018  RH  094%=      5-min Rain = 0
KEA1 071202Z 00023G29KT M01/M02 A3036 RMK A01 T10101019  RH  094%=      5-min Rain = 0
KEA1 071203Z 01019G25KT M01/M02 A3036 RMK A01 T10091019  RH  093%=      5-min Rain = 0
KEA1 071204Z 01022KT M01/M02 A3036 RMK A01 T10101019  RH  093%=      5-min Rain = 0
KEA1 071205Z 01022G27KT M01/M02 A3036 RMK A01 T10101020  RH  093%=      5-min Rain = 0
KEA1 071206Z 01025KT M01/M02 A3035 RMK A01 T10101020  RH  093%=      5-min Rain = 0
KEA1 071207Z 01023G29KT M01/M02 A3036 RMK A01 T10101021  RH  092%=      5-min Rain = 0
KEA1 071208Z 01024G31KT M01/M02 A3035 RMK A01 T10101021  RH  092%=      5-min Rain = 0
KEA1 071209Z 01023G30KT M01/M02 A3035 RMK A01 T10101021  RH  092%=      5-min Rain = 0
KEA1 071210Z 01022G28KT M01/M02 A3035 RMK A01 T10101021  RH  092%=      5-min Rain = 0
KEA1 071211Z 01020G25KT M01/M02 A3036 RMK A01 T10101021  RH  092%=      5-min Rain = 0
KEA1 071212Z 01021KT M01/M02 A3036 RMK A01 T10101021  RH  092%=      5-min Rain = 0
KEA1 071213Z 01021KT M01/M02 A3036 RMK A01 T10101020  RH  093%=      5-min Rain = 0
KEA1 071214Z 01020KT M01/M02 A3037 RMK A01 T10101020  RH  093%=      5-min Rain = 0
KEA1 071215Z 01018KT M01/M02 A3037 RMK A01 T10101020  RH  093%=      5-min Rain = 0
KEA1 071216Z 01019KT M01/M02 A3037 RMK A01 T10101020  RH  093%=      5-min Rain = 0
KEA1 071217Z 00018KT M01/M02 A3037 RMK A01 T10101019  RH  093%=      5-min Rain = 0
KEA1 071218Z 01019G24KT M01/M02 A3037 RMK A01 T10101019  RH  093%=      5-min Rain = 0
KEA1 071219Z 01021G26KT M01/M02 A3037 RMK A01 T10101019  RH  093%=      5-min Rain = 0
KEA1 071220Z 01020KT M01/M02 A3037 RMK A01 T10101019  RH  093%=      5-min Rain = 0
KEA1 071221Z 02017G22KT M01/M02 A3037 RMK A01 T10101020  RH  093%=      5-min Rain = 0
KEA1 071222Z 02020G25KT M01/M02 A3037 RMK A01 T10101020  RH  093%=      5-min Rain = 0
KEA1 071223Z 01020KT M01/M02 A3037 RMK A01 T10101020  RH  093%=      5-min Rain = 0
KEA1 071224Z 02021G26KT M01/M02 A3037 RMK A01 T10101020  RH  093%=      5-min Rain = 0
KEA1 071225Z 01023KT M01/M02 A3037 RMK A01 T10101020  RH  093%=      5-min Rain = 0
KEA1 071226Z 01020KT M01/M02 A3037 RMK A01 T10101021  RH  092%=      5-min Rain = 0
KEA1 071227Z 02018KT M01/M02 A3037 RMK A01 T10101021  RH  092%=      5-min Rain = 0
KEA1 071228Z 01016KT M01/M02 A3037 RMK A01 T10101021  RH  093%=      5-min Rain = 0
KEA1 071229Z 02020KT M01/M02 A3037 RMK A01 T10101020  RH  093%=      5-min Rain = 0
KEA1 071230Z 01019KT M01/M02 A3037 RMK A01 T10101020  RH  093%=      5-min Rain = 0
KEA1 071231Z 01019KT M01/M02 A3037 RMK A01 T10101020  RH  093%=      5-min Rain = 0
KEA1 071232Z 01021G28KT M01/M02 A3037 RMK A01 T10101020  RH  093%=      5-min Rain = 0
KEA1 071233Z 01020KT M01/M02 A3037 RMK A01 T10101020  RH  093%=      5-min Rain = 0
KEA1 071234Z 01021G26KT M01/M02 A3037 RMK A01 T10101020  RH  093%=      5-min Rain = 0
KEA1 071235Z 01024KT M01/M02 A3037 RMK A01 T10101021  RH  093%=      5-min Rain = 0
KEA1 071236Z 01022KT M01/M02 A3038 RMK A01 T10101021  RH  092%=      5-min Rain = 0
KEA1 071237Z 01021KT M01/M02 A3038 RMK A01 T10101020  RH  092%=      5-min Rain = 0
KEA1 071238Z 01019KT M01/M02 A3038 RMK A01 T10101021  RH  092%=      5-min Rain = 0
KEA1 071239Z 01018KT M01/M02 A3039 RMK A01 T10101020  RH  093%=      5-min Rain = 0
KEA1 071240Z 01017KT M01/M02 A3039 RMK A01 T10101020  RH  093%=      5-min Rain = 0
KEA1 071241Z 01017KT M01/M02 A3039 RMK A01 T10101020  RH  093%=      5-min Rain = 0
KEA1 071242Z 01018KT M01/M02 A3039 RMK A01 T10091019  RH  093%=      5-min Rain = 0
KEA1 071243Z 01018KT M01/M02 A3039 RMK A01 T10091019  RH  093%=      5-min Rain = 0
KEA1 071244Z 00017KT M01/M02 A3039 RMK A01 T10091019  RH  093%=      5-min Rain = 0
KEA1 071245Z 00018KT M01/M02 A3039 RMK A01 T10101019  RH  093%=      5-min Rain = 0
KEA1 071246Z 00015KT M01/M02 A3039 RMK A01 T10111020  RH  094%=      5-min Rain = 0
KEA1 071247Z 00015KT M01/M02 A3039 RMK A01 T10111020  RH  094%=      5-min Rain = 0
KEA1 071248Z 36014KT M01/M02 A3039 RMK A01 T10111019  RH  094%=      5-min Rain = 0
KEA1 071249Z 01014KT M01/M02 A3039 RMK A01 T10111019  RH  094%=      5-min Rain = 0
KEA1 071250Z 01016KT M01/M02 A3039 RMK A01 T10111019  RH  095%=      5-min Rain = 0
KEA1 071251Z 00018KT M01/M02 A3039 RMK A01 T10111019  RH  095%=      5-min Rain = 0
KEA1 071252Z 00017KT M01/M02 A3039 RMK A01 T10111018  RH  095%=      5-min Rain = 0
KEA1 071253Z 00015KT M01/M02 A3039 RMK A01 T10111018  RH  095%=      5-min Rain = 0
KEA1 071254Z 36020KT M01/M02 A3039 RMK A01 T10111018  RH  095%=      5-min Rain = 0
KEA1 071255Z 35020KT M01/M02 A3039 RMK A01 T10111019  RH  095%=      5-min Rain = 0
KEA1 071256Z 36020KT M01/M02 A3039 RMK A01 T10121019  RH  094%=      5-min Rain = 0
KEA1 071257Z 36019KT M01/M02 A3039 RMK A01 T10121020  RH  094%=      5-min Rain = 0
KEA1 071258Z 00017KT M01/M02 A3039 RMK A01 T10121020  RH  094%=      5-min Rain = 0
KEA1 071259Z 00019KT M01/M02 A3039 RMK A01 T10121019  RH  094%=      5-min Rain = 0
KEA1 071300Z 36016KT M01/M02 A3039 RMK A01 T10121020  RH  094%=      5-min Rain = 0
KEA1 071301Z 00016KT M01/M02 A3039 RMK A01 T10121019  RH  095%=      5-min Rain = 0
KEA1 071302Z 00014KT M01/M02 A3039 RMK A01 T10121019  RH  095%=      5-min Rain = 0
KEA1 071303Z 00014KT M01/M02 A3039 RMK A01 T10121019  RH  095%=      5-min Rain = 0
KEA1 071304Z 00014G19KT M01/M02 A3039 RMK A01 T10121019  RH  095%=      5-min Rain = 0
KEA1 071305Z 01021KT M01/M02 A3039 RMK A01 T10121019  RH  095%=      5-min Rain = 0
KEA1 071306Z 01019KT M01/M02 A3039 RMK A01 T10121020  RH  095%=      5-min Rain = 0
KEA1 071307Z 01020KT M01/M02 A3039 RMK A01 T10121020  RH  095%=      5-min Rain = 0
KEA1 071308Z 00019KT M01/M02 A3039 RMK A01 T10121020  RH  095%=      5-min Rain = 0
KEA1 071309Z 01017KT M01/M02 A3039 RMK A01 T10121019  RH  095%=      5-min Rain = 0
KEA1 071310Z 00016KT M01/M02 A304 RMK A01 T10121019  RH  095%=      5-min Rain = 0
KEA1 071311Z 01016KT M01/M02 A304 RMK A01 T10121020  RH  095%=      5-min Rain = 0
KEA1 071312Z 01014KT M01/M02 A304 RMK A01 T10111019  RH  094%=      5-min Rain = 0
KEA1 071313Z 02017KT M01/M02 A304 RMK A01 T10111019  RH  094%=      5-min Rain = 0
KEA1 071314Z 01015G20KT M01/M02 A304 RMK A01 T10111019  RH  094%=      5-min Rain = 0
KEA1 071315Z 01015G21KT M01/M02 A304 RMK A01 T10121020  RH  094%=      5-min Rain = 0
KEA1 071316Z 01018KT M01/M02 A304 RMK A01 T10121020  RH  094%=      5-min Rain = 0
KEA1 071317Z 01018KT M01/M02 A304 RMK A01 T10121021  RH  094%=      5-min Rain = 0
KEA1 071318Z 01015G21KT M01/M02 A304 RMK A01 T10121021  RH  094%=      5-min Rain = 0
KEA1 071319Z 00013KT M01/M02 A304 RMK A01 T10121020  RH  094%=      5-min Rain = 0
KEA1 071320Z 00015G20KT M01/M02 A3041 RMK A01 T10121020  RH  094%=      5-min Rain = 0
KEA1 071321Z 00018KT M01/M02 A3041 RMK A01 T10121020  RH  094%=      5-min Rain = 0
KEA1 071322Z 00022KT M01/M02 A304 RMK A01 T10131021  RH  094%=      5-min Rain = 0
KEA1 071323Z 01018G24KT M01/M02 A3041 RMK A01 T10131022  RH  094%=      5-min Rain = 0
KEA1 071324Z 01016G22KT M01/M02 A3041 RMK A01 T10121021  RH  094%=      5-min Rain = 0
KEA1 071325Z 01022KT M01/M02 A304 RMK A01 T10131021  RH  094%=      5-min Rain = 0
KEA1 071326Z 01020G25KT M01/M02 A304 RMK A01 T10131022  RH  094%=      5-min Rain = 0
KEA1 071327Z 01021G26KT M01/M02 A304 RMK A01 T10131022  RH  094%=      5-min Rain = 0
KEA1 071328Z 01021KT M01/M02 A304 RMK A01 T10131022  RH  094%=      5-min Rain = 0
KEA1 071329Z 01017KT M01/M02 A304 RMK A01 T10131022  RH  094%=      5-min Rain = 0
KEA1 071330Z 01017G22KT M01/M02 A304 RMK A01 T10131022  RH  094%=      5-min Rain = 0
KEA1 071331Z 01015KT M01/M02 A304 RMK A01 T10131022  RH  094%=      5-min Rain = 0
KEA1 071332Z 01019G25KT M01/M02 A304 RMK A01 T10131021  RH  094%=      5-min Rain = 0
KEA1 071333Z 01024KT M01/M02 A304 RMK A01 T10131022  RH  094%=      5-min Rain = 0
KEA1 071334Z 01019KT M01/M02 A304 RMK A01 T10131023  RH  093%=      5-min Rain = 0
KEA1 071335Z 01016KT M01/M02 A3041 RMK A01 T10131023  RH  093%=      5-min Rain = 0
KEA1 071336Z 01019KT M01/M02 A3041 RMK A01 T10131022  RH  094%=      5-min Rain = 0
KEA1 071337Z 01017KT M01/M02 A3041 RMK A01 T10131022  RH  094%=      5-min Rain = 0
KEA1 071338Z 01017G23KT M01/M02 A3041 RMK A01 T10131023  RH  093%=      5-min Rain = 0
KEA1 071339Z 01022KT M01/M02 A304 RMK A01 T10131022  RH  094%=      5-min Rain = 0
KEA1 071340Z 01021KT M01/M02 A3041 RMK A01 T10131023  RH  093%=      5-min Rain = 0
KEA1 071341Z 01018KT M01/M02 A3041 RMK A01 T10141023  RH  093%=      5-min Rain = 0
KEA1 071342Z 01020G25KT M01/M02 A3041 RMK A01 T10141023  RH  093%=      5-min Rain = 0
KEA1 071343Z 02019KT M01/M02 A3041 RMK A01 T10141023  RH  093%=      5-min Rain = 0
KEA1 071344Z 01019G24KT M01/M02 A3041 RMK A01 T10131023  RH  093%=      5-min Rain = 0
KEA1 071345Z 01022KT M01/M02 A3041 RMK A01 T10131022  RH  093%=      5-min Rain = 0
KEA1 071346Z 02019KT M01/M02 A3041 RMK A01 T10131023  RH  093%=      5-min Rain = 0
KEA1 071347Z 01020G26KT M01/M02 A3041 RMK A01 T10131023  RH  093%=      5-min Rain = 0
KEA1 071348Z 02021KT M01/M02 A3041 RMK A01 T10131022  RH  094%=      5-min Rain = 0
KEA1 071349Z 02020KT M01/M02 A3041 RMK A01 T10131022  RH  093%=      5-min Rain = 0
KEA1 071350Z 02019KT M01/M02 A3041 RMK A01 T10131022  RH  093%=      5-min Rain = 0
KEA1 071351Z 01020KT M01/M02 A3041 RMK A01 T10131022  RH  093%=      5-min Rain = 0
KEA1 071352Z 02021KT M01/M02 A3041 RMK A01 T10131023  RH  093%=      5-min Rain = 0
KEA1 071353Z 02023KT M01/M02 A3041 RMK A01 T10141024  RH  093%=      5-min Rain = 0
KEA1 071354Z 02017KT M01/M02 A3041 RMK A01 T10141024  RH  093%=      5-min Rain = 0
KEA1 071355Z 02020KT M01/M02 A3041 RMK A01 T10141024  RH  093%=      5-min Rain = 0
KEA1 071356Z 01022KT M01/M02 A3041 RMK A01 T10131023  RH  093%=      5-min Rain = 0
KEA1 071357Z 02021KT M01/M02 A3041 RMK A01 T10141024  RH  093%=      5-min Rain = 0
KEA1 071358Z 02018G24KT M01/M02 A3041 RMK A01 T10141024  RH  093%=      5-min Rain = 0
KEA1 071359Z 02018G24KT M01/M02 A3041 RMK A01 T10141024  RH  093%=      5-min Rain = 0
KEA1 071400Z 02019KT M01/M02 A3041 RMK A01 T10131023  RH  093%=      5-min Rain = 0
KEA1 071401Z 02018KT M01/M02 A3041 RMK A01 T10141023  RH  093%=      5-min Rain = 0
KEA1 071402Z 01018KT M01/M02 A3042 RMK A01 T10131023  RH  093%=      5-min Rain = 0
KEA1 071403Z 01018KT M01/M02 A3042 RMK A01 T10141023  RH  093%=      5-min Rain = 0
KEA1 071404Z 01018KT M01/M02 A3042 RMK A01 T10141023  RH  093%=      5-min Rain = 0
KEA1 071405Z 01016KT M01/M02 A3042 RMK A01 T10131023  RH  093%=      5-min Rain = 0
KEA1 071406Z 02016KT M01/M02 A3042 RMK A01 T10141023  RH  093%=      5-min Rain = 0
KEA1 071407Z 01014KT M01/M02 A3042 RMK A01 T10141023  RH  093%=      5-min Rain = 0
KEA1 071408Z 01015G20KT M01/M02 A3042 RMK A01 T10131022  RH  094%=      5-min Rain = 0
KEA1 071409Z 01016KT M01/M02 A3042 RMK A01 T10131022  RH  094%=      5-min Rain = 0
KEA1 071410Z 02015KT M01/M02 A3042 RMK A01 T10141023  RH  094%=      5-min Rain = 0
KEA1 071411Z 02015KT M01/M02 A3042 RMK A01 T10141023  RH  094%=      5-min Rain = 0
KEA1 071412Z 01015KT M01/M02 A3042 RMK A01 T10131022  RH  094%=      5-min Rain = 0
KEA1 071413Z 01015KT M01/M02 A3043 RMK A01 T10141022  RH  094%=      5-min Rain = 0
KEA1 071414Z 01012G17KT M01/M02 A3043 RMK A01 T10141023  RH  094%=      5-min Rain = 0
KEA1 071415Z 02016KT M01/M02 A3043 RMK A01 T10141022  RH  094%=      5-min Rain = 0
KEA1 071416Z 02014KT M01/M02 A3043 RMK A01 T10141023  RH  094%=      5-min Rain = 0
KEA1 071417Z 02015KT M01/M02 A3043 RMK A01 T10141023  RH  094%=      5-min Rain = 0
KEA1 071418Z 00011KT M01/M02 A3044 RMK A01 T10141023  RH  094%=      5-min Rain = 0
KEA1 071419Z 01011KT M01/M02 A3044 RMK A01 T10141022  RH  094%=      5-min Rain = 0
KEA1 071420Z 01013KT M01/M02 A3044 RMK A01 T10131022  RH  094%=      5-min Rain = 0
KEA1 071421Z 02012KT M01/M02 A3044 RMK A01 T10131022  RH  094%=      5-min Rain = 0
KEA1 071422Z 01010KT M01/M02 A3044 RMK A01 T10141022  RH  094%=      5-min Rain = 0
KEA1 071423Z 00014KT M01/M02 A3044 RMK A01 T10131022  RH  094%=      5-min Rain = 0
KEA1 071424Z 36014KT M01/M02 A3044 RMK A01 T10131021  RH  094%=      5-min Rain = 0
KEA1 071425Z 00013KT M01/M02 A3044 RMK A01 T10131021  RH  094%=      5-min Rain = 0
KEA1 071426Z 36014KT M01/M02 A3044 RMK A01 T10131021  RH  094%=      5-min Rain = 0
KEA1 071427Z 36017KT M01/M02 A3044 RMK A01 T10131021  RH  094%=      5-min Rain = 0
KEA1 071428Z 00017KT M01/M02 A3044 RMK A01 T10131022  RH  094%=      5-min Rain = 0
KEA1 071429Z 00014KT M01/M02 A3044 RMK A01 T10131022  RH  094%=      5-min Rain = 0
KEA1 071430Z 00015KT M01/M02 A3044 RMK A01 T10131021  RH  094%=      5-min Rain = 0
KEA1 071431Z 01016KT M01/M02 A3044 RMK A01 T10131022  RH  094%=      5-min Rain = 0
KEA1 071432Z 01017KT M01/M02 A3044 RMK A01 T10131021  RH  094%=      5-min Rain = 0
KEA1 071433Z 01016KT M01/M02 A3044 RMK A01 T10131022  RH  094%=      5-min Rain = 0
KEA1 071434Z 01015KT M01/M02 A3045 RMK A01 T10131022  RH  094%=      5-min Rain = 0
KEA1 071435Z 01018KT M01/M02 A3044 RMK A01 T10141022  RH  094%=      5-min Rain = 0
KEA1 071436Z 01019KT M01/M02 A3044 RMK A01 T10141022  RH  094%=      5-min Rain = 0
KEA1 071437Z 00019KT M01/M02 A3044 RMK A01 T10141022  RH  094%=      5-min Rain = 0
KEA1 071438Z 01017KT M01/M02 A3044 RMK A01 T10131022  RH  094%=      5-min Rain = 0
KEA1 071439Z 01016KT M01/M02 A3045 RMK A01 T10131022  RH  094%=      5-min Rain = 0
KEA1 071440Z 01018KT M01/M02 A3045 RMK A01 T10131021  RH  094%=      5-min Rain = 0
KEA1 071441Z 00014KT M01/M02 A3045 RMK A01 T10131021  RH  094%=      5-min Rain = 0
KEA1 071442Z 01014KT M01/M02 A3045 RMK A01 T10131021  RH  094%=      5-min Rain = 0
KEA1 071443Z 01015KT M01/M02 A3044 RMK A01 T10131021  RH  094%=      5-min Rain = 0
KEA1 071444Z 02015KT M01/M02 A3044 RMK A01 T10131021  RH  094%=      5-min Rain = 0
KEA1 071445Z 01014KT M01/M02 A3044 RMK A01 T10131021  RH  094%=      5-min Rain = 0
KEA1 071446Z 02014KT M01/M02 A3045 RMK A01 T10131021  RH  094%=      5-min Rain = 0
KEA1 071447Z 01014KT M01/M02 A3045 RMK A01 T10121020  RH  094%=      5-min Rain = 0
KEA1 071448Z 01013G18KT M01/M02 A3045 RMK A01 T10121020  RH  095%=      5-min Rain = 0
KEA1 071449Z 01014KT M01/M02 A3045 RMK A01 T10121019  RH  095%=      5-min Rain = 0
KEA1 071450Z 00016KT M01/M02 A3045 RMK A01 T10121019  RH  095%=      5-min Rain = 0
KEA1 071451Z 01015KT M01/M02 A3045 RMK A01 T10121020  RH  095%=      5-min Rain = 0
KEA1 071452Z 01015KT M01/M02 A3045 RMK A01 T10121020  RH  094%=      5-min Rain = 0
KEA1 071453Z 01015KT M01/M02 A3045 RMK A01 T10121020  RH  094%=      5-min Rain = 0
KEA1 071454Z 01013KT M01/M02 A3046 RMK A01 T10121020  RH  095%=      5-min Rain = 0
KEA1 071455Z 00014KT M01/M02 A3045 RMK A01 T10111019  RH  095%=      5-min Rain = 0
KEA1 071456Z 00014KT M01/M02 A3045 RMK A01 T10111019  RH  095%=      5-min Rain = 0
KEA1 071457Z 01013KT M01/M02 A3045 RMK A01 T10121019  RH  095%=      5-min Rain = 0
KEA1 071458Z 01016KT M01/M02 A3045 RMK A01 T10121019  RH  095%=      5-min Rain = 0
KEA1 071459Z 01016KT M01/M02 A3045 RMK A01 T10121019  RH  095%=      5-min Rain = 0
KEA1 071500Z 01016KT M01/M02 A3045 RMK A01 T10121020  RH  094%=      5-min Rain = 0
KEA1 071501Z 01015KT M01/M02 A3045 RMK A01 T10121020  RH  094%=      5-min Rain = 0
KEA1 071502Z 01014KT M01/M02 A3045 RMK A01 T10121020  RH  094%=      5-min Rain = 0
KEA1 071503Z 01017KT M01/M02 A3045 RMK A01 T10121020  RH  094%=      5-min Rain = 0
KEA1 071504Z 01015KT M01/M02 A3045 RMK A01 T10131020  RH  094%=      5-min Rain = 0
KEA1 071505Z 00017KT M01/M02 A3045 RMK A01 T10131021  RH  094%=      5-min Rain = 0
KEA1 071506Z 01016KT M01/M02 A3045 RMK A01 T10131021  RH  094%=      5-min Rain = 0
KEA1 071507Z 01014KT M01/M02 A3045 RMK A01 T10131021  RH  094%=      5-min Rain = 0
KEA1 071508Z 01016G21KT M01/M02 A3044 RMK A01 T10131021  RH  094%=      5-min Rain = 0
KEA1 071509Z 01016KT M01/M02 A3045 RMK A01 T10131021  RH  094%=      5-min Rain = 0
KEA1 071510Z 01019KT M01/M02 A3045 RMK A01 T10141022  RH  094%=      5-min Rain = 0
KEA1 071511Z 01015KT M01/M02 A3045 RMK A01 T10141022  RH  094%=      5-min Rain = 0
KEA1 071512Z 01017KT M01/M02 A3045 RMK A01 T10141022  RH  094%=      5-min Rain = 0
KEA1 071513Z 01017KT M01/M02 A3045 RMK A01 T10131022  RH  094%=      5-min Rain = 0
KEA1 071514Z 01016KT M01/M02 A3045 RMK A01 T10131022  RH  094%=      5-min Rain = 0
KEA1 071515Z 01015KT M01/M02 A3045 RMK A01 T10141022  RH  094%=      5-min Rain = 0
KEA1 071516Z 01016KT M01/M02 A3045 RMK A01 T10141022  RH  094%=      5-min Rain = 0
KEA1 071517Z 01015KT M01/M02 A3045 RMK A01 T10141022  RH  094%=      5-min Rain = 0
KEA1 071518Z 00013KT M01/M02 A3046 RMK A01 T10131022  RH  094%=      5-min Rain = 0
KEA1 071519Z 01016KT M01/M02 A3046 RMK A01 T10131021  RH  094%=      5-min Rain = 0
KEA1 071520Z 01013KT M01/M02 A3046 RMK A01 T10131021  RH  094%=      5-min Rain = 0
KEA1 071521Z 01016KT M01/M02 A3046 RMK A01 T10121021  RH  094%=      5-min Rain = 0
KEA1 071522Z 01017KT M01/M02 A3046 RMK A01 T10131021  RH  094%=      5-min Rain = 0
KEA1 071523Z 01016KT M01/M02 A3046 RMK A01 T10121021  RH  094%=      5-min Rain = 0
KEA1 071524Z 01014KT M01/M02 A3046 RMK A01 T10131022  RH  094%=      5-min Rain = 0
KEA1 071525Z 02014KT M01/M02 A3046 RMK A01 T10131022  RH  094%=      5-min Rain = 0
KEA1 071526Z 01013KT M01/M02 A3046 RMK A01 T10121021  RH  094%=      5-min Rain = 0
KEA1 071527Z 02014KT M01/M02 A3046 RMK A01 T10121021  RH  094%=      5-min Rain = 0
KEA1 071528Z 01012KT M01/M02 A3046 RMK A01 T10121021  RH  094%=      5-min Rain = 0
KEA1 071529Z 01012KT M01/M02 A3046 RMK A01 T10121021  RH  094%=      5-min Rain = 0
KEA1 071530Z 01014KT M01/M02 A3046 RMK A01 T10121020  RH  094%=      5-min Rain = 0
KEA1 071531Z 01015KT M01/M02 A3046 RMK A01 T10121021  RH  094%=      5-min Rain = 0
KEA1 071532Z 02017KT M01/M02 A3046 RMK A01 T10121021  RH  094%=      5-min Rain = 0
KEA1 071533Z 01014KT M01/M02 A3046 RMK A01 T10131022  RH  094%=      5-min Rain = 0
KEA1 071534Z 01013KT M01/M02 A3046 RMK A01 T10131021  RH  094%=      5-min Rain = 0
KEA1 071535Z 01014KT M01/M02 A3046 RMK A01 T10121021  RH  094%=      5-min Rain = 0
KEA1 071536Z 01014G19KT M01/M02 A3046 RMK A01 T10121021  RH  094%=      5-min Rain = 0
KEA1 071537Z 01012KT M01/M02 A3046 RMK A01 T10121021  RH  094%=      5-min Rain = 0
KEA1 071538Z 01018KT M01/M02 A3046 RMK A01 T10121021  RH  094%=      5-min Rain = 0
KEA1 071539Z 01018KT M01/M02 A3046 RMK A01 T10131022  RH  093%=      5-min Rain = 0
KEA1 071540Z 01018KT M01/M02 A3046 RMK A01 T10131023  RH  093%=      5-min Rain = 0
KEA1 071541Z 01015KT M01/M02 A3046 RMK A01 T10131023  RH  093%=      5-min Rain = 0
KEA1 071542Z 01014KT M01/M02 A3046 RMK A01 T10131023  RH  093%=      5-min Rain = 0
KEA1 071543Z 02013KT M01/M02 A3047 RMK A01 T10131022  RH  093%=      5-min Rain = 0
KEA1 071544Z 02017KT M01/M02 A3046 RMK A01 T10131022  RH  093%=      5-min Rain = 0
KEA1 071545Z 02016KT M01/M02 A3047 RMK A01 T10131022  RH  093%=      5-min Rain = 0
KEA1 071546Z 01016KT M01/M02 A3047 RMK A01 T10121022  RH  093%=      5-min Rain = 0
KEA1 071547Z 02014KT M01/M02 A3047 RMK A01 T10131022  RH  093%=      5-min Rain = 0
KEA1 071548Z 02015KT M01/M02 A3047 RMK A01 T10121022  RH  093%=      5-min Rain = 0
KEA1 071549Z 02013KT M01/M02 A3047 RMK A01 T10121022  RH  093%=      5-min Rain = 0
KEA1 071550Z 02016KT M01/M02 A3047 RMK A01 T10121022  RH  093%=      5-min Rain = 0
KEA1 071551Z 01012KT M01/M02 A3047 RMK A01 T10121022  RH  093%=      5-min Rain = 0
KEA1 071552Z 01015KT M01/M02 A3047 RMK A01 T10121021  RH  093%=      5-min Rain = 0
KEA1 071553Z 02018KT M01/M02 A3047 RMK A01 T10121021  RH  093%=      5-min Rain = 0
KEA1 071554Z 01016KT M01/M02 A3047 RMK A01 T10111021  RH  093%=      5-min Rain = 0
KEA1 071555Z 02013KT M01/M02 A3047 RMK A01 T10121022  RH  093%=      5-min Rain = 0
KEA1 071556Z 01014KT M01/M02 A3047 RMK A01 T10121021  RH  093%=      5-min Rain = 0
KEA1 071557Z 02014KT M01/M02 A3047 RMK A01 T10111020  RH  093%=      5-min Rain = 0
KEA1 071558Z 02013KT M01/M02 A3047 RMK A01 T10111021  RH  093%=      5-min Rain = 0
KEA1 071559Z 02014KT M01/M02 A3047 RMK A01 T10111020  RH  094%=      5-min Rain = 0
KEA1 071600Z 01014KT M01/M02 A3047 RMK A01 T10111020  RH  094%=      5-min Rain = 0
KEA1 071601Z 00014KT M01/M02 A3047 RMK A01 T10111020  RH  094%=      5-min Rain = 0
KEA1 071602Z 01015KT M01/M02 A3048 RMK A01 T10111020  RH  094%=      5-min Rain = 0
KEA1 071603Z 01011KT M01/M02 A3048 RMK A01 T10111020  RH  094%=      5-min Rain = 0
KEA1 071604Z 01014KT M01/M02 A3048 RMK A01 T10111020  RH  094%=      5-min Rain = 0
KEA1 071605Z 01015KT M01/M02 A3048 RMK A01 T10101019  RH  094%=      5-min Rain = 0
KEA1 071606Z 01014KT M01/M02 A3048 RMK A01 T10111020  RH  094%=      5-min Rain = 0
KEA1 071607Z 01014KT M01/M02 A3048 RMK A01 T10111020  RH  094%=      5-min Rain = 0
KEA1 071608Z 01014KT M01/M02 A3047 RMK A01 T10111020  RH  094%=      5-min Rain = 0
KEA1 071609Z 02016KT M01/M02 A3047 RMK A01 T10111020  RH  094%=      5-min Rain = 0
KEA1 071610Z 02016KT M01/M02 A3047 RMK A01 T10111020  RH  094%=      5-min Rain = 0
KEA1 071611Z 02014KT M01/M02 A3047 RMK A01 T10111020  RH  094%=      5-min Rain = 0
KEA1 071612Z 01010KT M01/M02 A3047 RMK A01 T10111020  RH  094%=      5-min Rain = 0
KEA1 071613Z 01012KT M01/M02 A3047 RMK A01 T10111019  RH  094%=      5-min Rain = 0
KEA1 071614Z 01013KT M01/M02 A3047 RMK A01 T10111019  RH  094%=      5-min Rain = 0
KEA1 071615Z 00011KT M01/M02 A3048 RMK A01 T10111019  RH  094%=      5-min Rain = 0
KEA1 071616Z 00014KT M01/M02 A3047 RMK A01 T10101018  RH  095%=      5-min Rain = 0
KEA1 071617Z 00014KT M01/M02 A3047 RMK A01 T10101018  RH  094%=      5-min Rain = 0
KEA1 071618Z 00015KT M01/M02 A3047 RMK A01 T10111019  RH  094%=      5-min Rain = 0
KEA1 071619Z 00015KT M01/M02 A3047 RMK A01 T10111020  RH  094%=      5-min Rain = 0
KEA1 071620Z 01011KT M01/M02 A3047 RMK A01 T10121020  RH  094%=      5-min Rain = 0
KEA1 071621Z 00014KT M01/M02 A3047 RMK A01 T10121019  RH  095%=      5-min Rain = 0
KEA1 071622Z 01013KT M01/M02 A3047 RMK A01 T10121019  RH  095%=      5-min Rain = 0
KEA1 071623Z 01015KT M01/M02 A3046 RMK A01 T10111019  RH  095%=      5-min Rain = 0
KEA1 071624Z 01014KT M01/M02 A3047 RMK A01 T10111019  RH  095%=      5-min Rain = 0
KEA1 071625Z 02016KT M01/M02 A3046 RMK A01 T10121019  RH  095%=      5-min Rain = 0
KEA1 071626Z 01016KT M01/M02 A3046 RMK A01 T10111018  RH  095%=      5-min Rain = 0
KEA1 071627Z 01017KT M01/M02 A3046 RMK A01 T10111019  RH  095%=      5-min Rain = 0
KEA1 071628Z 02014KT M01/M02 A3047 RMK A01 T10121019  RH  095%=      5-min Rain = 0
KEA1 071629Z 01015KT M01/M02 A3047 RMK A01 T10111019  RH  095%=      5-min Rain = 0
KEA1 071630Z 02015G20KT M01/M02 A3047 RMK A01 T10111018  RH  095%=      5-min Rain = 0
KEA1 071631Z 02017KT M01/M02 A3047 RMK A01 T10111017  RH  095%=      5-min Rain = 0
KEA1 071632Z 02016KT M01/M02 A3047 RMK A01 T10111018  RH  095%=      5-min Rain = 0
KEA1 071633Z 02015KT M01/M02 A3047 RMK A01 T10121019  RH  095%=      5-min Rain = 0
KEA1 071634Z 02016KT M01/M02 A3047 RMK A01 T10121019  RH  095%=      5-min Rain = 0
KEA1 071635Z 01015KT M01/M02 A3047 RMK A01 T10121019  RH  095%=      5-min Rain = 0
KEA1 071636Z 01016KT M01/M02 A3047 RMK A01 T10121019  RH  095%=      5-min Rain = 0
KEA1 071637Z 01017KT M01/M02 A3046 RMK A01 T10121019  RH  095%=      5-min Rain = 0
KEA1 071638Z 02015KT M01/M02 A3046 RMK A01 T10131020  RH  095%=      5-min Rain = 0
KEA1 071639Z 02014KT M01/M02 A3046 RMK A01 T10131020  RH  095%=      5-min Rain = 0
KEA1 071640Z 02017KT M01/M02 A3046 RMK A01 T10121019  RH  095%=      5-min Rain = 0
KEA1 071641Z 02018KT M01/M02 A3046 RMK A01 T10121019  RH  095%=      5-min Rain = 0
KEA1 071642Z 02017KT M01/M02 A3046 RMK A01 T10131020  RH  095%=      5-min Rain = 0
KEA1 071643Z 02015KT M01/M02 A3047 RMK A01 T10131020  RH  095%=      5-min Rain = 0
KEA1 071644Z 02014KT M01/M02 A3047 RMK A01 T10131020  RH  095%=      5-min Rain = 0
KEA1 071645Z 03013KT M01/M02 A3047 RMK A01 T10121019  RH  095%=      5-min Rain = 0
KEA1 071646Z 03017KT M01/M02 A3047 RMK A01 T10121018  RH  095%=      5-min Rain = 0
KEA1 071647Z 03016KT M01/M02 A3047 RMK A01 T10131020  RH  095%=      5-min Rain = 0
KEA1 071648Z 02016KT M01/M02 A3047 RMK A01 T10131020  RH  095%=      5-min Rain = 0
KEA1 071649Z 02013KT M01/M02 A3048 RMK A01 T10121020  RH  095%=      5-min Rain = 0
KEA1 071650Z 02015KT M01/M02 A3048 RMK A01 T10121019  RH  095%=      5-min Rain = 0
KEA1 071651Z 02014KT M01/M02 A3048 RMK A01 T10121019  RH  095%=      5-min Rain = 0
KEA1 071652Z 01013KT M01/M02 A3048 RMK A01 T10121019  RH  095%=      5-min Rain = 0
KEA1 071653Z 01014KT M01/M02 A3049 RMK A01 T10121019  RH  095%=      5-min Rain = 0
KEA1 071654Z 01013KT M01/M02 A3049 RMK A01 T10111019  RH  095%=      5-min Rain = 0
KEA1 071655Z 01014KT M01/M02 A3049 RMK A01 T10121019  RH  095%=      5-min Rain = 0
KEA1 071656Z 01014KT M01/M02 A3049 RMK A01 T10121019  RH  095%=      5-min Rain = 0
KEA1 071657Z 01010KT M01/M02 A3049 RMK A01 T10121020  RH  095%=      5-min Rain = 0
KEA1 071658Z 01015KT M01/M02 A3048 RMK A01 T10121019  RH  095%=      5-min Rain = 0
KEA1 071659Z 01015KT M01/M02 A3048 RMK A01 T10121019  RH  095%=      5-min Rain = 0
KEA1 071700Z 01016KT M01/M02 A3048 RMK A01 T10121020  RH  095%=      5-min Rain = 0
KEA1 071701Z 01014KT M01/M02 A3048 RMK A01 T10131020  RH  095%=      5-min Rain = 0
KEA1 071702Z 01016KT M01/M02 A3048 RMK A01 T10131021  RH  095%=      5-min Rain = 0
KEA1 071703Z 01016KT M01/M02 A3048 RMK A01 T10131021  RH  094%=      5-min Rain = 0
KEA1 071704Z 01017KT M01/M02 A3049 RMK A01 T10121020  RH  094%=      5-min Rain = 0
KEA1 071705Z 01016KT M01/M02 A3049 RMK A01 T10131021  RH  094%=      5-min Rain = 0
KEA1 071706Z 01015KT M01/M02 A3049 RMK A01 T10131021  RH  094%=      5-min Rain = 0
KEA1 071707Z 01013KT M01/M02 A3049 RMK A01 T10131020  RH  094%=      5-min Rain = 0
KEA1 071708Z 01014KT M01/M02 A3049 RMK A01 T10121020  RH  095%=      5-min Rain = 0
KEA1 071709Z 01014KT M01/M02 A3049 RMK A01 T10121019  RH  095%=      5-min Rain = 0
KEA1 071710Z 01015KT M01/M02 A3049 RMK A01 T10121019  RH  095%=      5-min Rain = 0
KEA1 071711Z 01015KT M01/M02 A3049 RMK A01 T10121019  RH  095%=      5-min Rain = 0
KEA1 071712Z 02013KT M01/M02 A3049 RMK A01 T10121019  RH  095%=      5-min Rain = 0
KEA1 071713Z 01013KT M01/M02 A3049 RMK A01 T10121019  RH  095%=      5-min Rain = 0
KEA1 071714Z 01016KT M01/M02 A3048 RMK A01 T10111019  RH  095%=      5-min Rain = 0
KEA1 071715Z 01014KT M01/M02 A3048 RMK A01 T10121019  RH  095%=      5-min Rain = 0
KEA1 071716Z 01014KT M01/M02 A3048 RMK A01 T10121019  RH  095%=      5-min Rain = 0
KEA1 071717Z 02015KT M01/M02 A3048 RMK A01 T10111019  RH  095%=      5-min Rain = 0
KEA1 071718Z 02016KT M01/M02 A3048 RMK A01 T10111019  RH  095%=      5-min Rain = 0
KEA1 071719Z 01016KT M01/M02 A3047 RMK A01 T10111019  RH  095%=      5-min Rain = 0
KEA1 071720Z 01013KT M01/M02 A3047 RMK A01 T10111019  RH  095%=      5-min Rain = 0
KEA1 071721Z 02014KT M01/M02 A3047 RMK A01 T10111018  RH  095%=      5-min Rain = 0
KEA1 071722Z 01017KT M01/M02 A3047 RMK A01 T10111018  RH  095%=      5-min Rain = 0
KEA1 071723Z 01017KT M01/M02 A3047 RMK A01 T10111018  RH  095%=      5-min Rain = 0
KEA1 071724Z 01014KT M01/M02 A3047 RMK A01 T10111018  RH  095%=      5-min Rain = 0
KEA1 071725Z 02015KT M01/M02 A3047 RMK A01 T10111018  RH  095%=      5-min Rain = 0
KEA1 071726Z 02016KT M01/M02 A3047 RMK A01 T10111018  RH  095%=      5-min Rain = 0
KEA1 071727Z 01017KT M01/M02 A3046 RMK A01 T10111018  RH  095%=      5-min Rain = 0
KEA1 071728Z 02018KT M01/M02 A3046 RMK A01 T10121019  RH  095%=      5-min Rain = 0
KEA1 071729Z 02015KT M01/M02 A3047 RMK A01 T10121018  RH  095%=      5-min Rain = 0
KEA1 071730Z 02016KT M01/M02 A3047 RMK A01 T10111018  RH  095%=      5-min Rain = 0
KEA1 071731Z 02014KT M01/M02 A3047 RMK A01 T10111018  RH  095%=      5-min Rain = 0
KEA1 071732Z 02016KT M01/M02 A3047 RMK A01 T10111018  RH  095%=      5-min Rain = 0
KEA1 071733Z 02016KT M01/M02 A3048 RMK A01 T10111018  RH  095%=      5-min Rain = 0
KEA1 071734Z 02015KT M01/M02 A3048 RMK A01 T10121018  RH  095%=      5-min Rain = 0
KEA1 071735Z 03015KT M01/M02 A3049 RMK A01 T10121018  RH  095%=      5-min Rain = 0
KEA1 071736Z 02013KT M01/M02 A3049 RMK A01 T10121019  RH  095%=      5-min Rain = 0
KEA1 071737Z 02014KT M01/M02 A3049 RMK A01 T10121019  RH  095%=      5-min Rain = 0
KEA1 071738Z 02013KT M01/M02 A3049 RMK A01 T10121019  RH  095%=      5-min Rain = 0
KEA1 071739Z 01014KT M01/M02 A3049 RMK A01 T10121019  RH  095%=      5-min Rain = 0
KEA1 071740Z 02013KT M01/M02 A3049 RMK A01 T10121019  RH  095%=      5-min Rain = 0
KEA1 071741Z 02011KT M01/M02 A3049 RMK A01 T10121019  RH  095%=      5-min Rain = 0
KEA1 071742Z 02014KT M01/M02 A3049 RMK A01 T10121019  RH  095%=      5-min Rain = 0
KEA1 071743Z 02016KT M01/M02 A3049 RMK A01 T10121019  RH  095%=      5-min Rain = 0
KEA1 071744Z 01014KT M01/M02 A3049 RMK A01 T10121019  RH  095%=      5-min Rain = 0
KEA1 071745Z 02014KT M01/M02 A3049 RMK A01 T10121019  RH  095%=      5-min Rain = 0
KEA1 071746Z 02013KT M01/M02 A3049 RMK A01 T10121019  RH  095%=      5-min Rain = 0
KEA1 071747Z 02014KT M01/M02 A3049 RMK A01 T10121019  RH  095%=      5-min Rain = 0
KEA1 071748Z 02015KT M01/M02 A3049 RMK A01 T10121019  RH  095%=      5-min Rain = 0
KEA1 071749Z 01015KT M01/M02 A3049 RMK A01 T10121019  RH  095%=      5-min Rain = 0
KEA1 071750Z 00014KT M01/M02 A3049 RMK A01 T10121019  RH  095%=      5-min Rain = 0
KEA1 071751Z 01016KT M01/M02 A3049 RMK A01 T10121019  RH  095%=      5-min Rain = 0
KEA1 071752Z 00014KT M01/M02 A3049 RMK A01 T10121019  RH  095%=      5-min Rain = 0
KEA1 071753Z 01013KT M01/M02 A3049 RMK A01 T10121019  RH  095%=      5-min Rain = 0
KEA1 071754Z 00012KT M01/M02 A3049 RMK A01 T10121019  RH  095%=      5-min Rain = 0
KEA1 071755Z 01013G19KT M01/M02 A3049 RMK A01 T10111018  RH  095%=      5-min Rain = 0
KEA1 071756Z 01016KT M01/M02 A3049 RMK A01 T10111018  RH  095%=      5-min Rain = 0
KEA1 071757Z 01013KT M01/M02 A3049 RMK A01 T10121020  RH  095%=      5-min Rain = 0
KEA1 071758Z 01012KT M01/M02 A3049 RMK A01 T10121020  RH  095%=      5-min Rain = 0
KEA1 071759Z 01013KT M01/M02 A3049 RMK A01 T10131020  RH  095%=      5-min Rain = 0
KEA1 071800Z 00014KT M01/M02 A3049 RMK A01 T10121019  RH  095%=      5-min Rain = 0
KEA1 071801Z 00014KT M01/M02 A3049 RMK A01 T10121020  RH  095%=      5-min Rain = 0
KEA1 071802Z 00013KT M01/M02 A3049 RMK A01 T10131020  RH  095%=      5-min Rain = 0
KEA1 071803Z 01014KT M01/M02 A3049 RMK A01 T10131020  RH  095%=      5-min Rain = 0
KEA1 071804Z 00009KT M01/M02 A3049 RMK A01 T10121020  RH  095%=      5-min Rain = 0
KEA1 071805Z 01011KT M01/M02 A3049 RMK A01 T10121018  RH  095%=      5-min Rain = 0
KEA1 071806Z 00014KT M01/M02 A3049 RMK A01 T10111017  RH  095%=      5-min Rain = 0
KEA1 071807Z 01017KT M01/M02 A3049 RMK A01 T10121019  RH  095%=      5-min Rain = 0
KEA1 071808Z 01015KT M01/M02 A3048 RMK A01 T10131020  RH  095%=      5-min Rain = 0
KEA1 071809Z 01016KT M01/M02 A3048 RMK A01 T10131020  RH  095%=      5-min Rain = 0
KEA1 071810Z 00014KT M01/M02 A3048 RMK A01 T10131020  RH  095%=      5-min Rain = 0
KEA1 071811Z 01012KT M01/M02 A3048 RMK A01 T10121020  RH  095%=      5-min Rain = 0
KEA1 071812Z 01015KT M01/M02 A3048 RMK A01 T10111018  RH  095%=      5-min Rain = 0
KEA1 071813Z 01015KT M01/M02 A3048 RMK A01 T10121019  RH  095%=      5-min Rain = 0
KEA1 071814Z 01015KT M01/M02 A3048 RMK A01 T10131020  RH  095%=      5-min Rain = 0
KEA1 071815Z 01014KT M01/M02 A3048 RMK A01 T10131020  RH  095%=      5-min Rain = 0
KEA1 071816Z 01013KT M01/M02 A3048 RMK A01 T10131021  RH  094%=      5-min Rain = 0
KEA1 071817Z 02014KT M01/M02 A3048 RMK A01 T10131021  RH  094%=      5-min Rain = 0
KEA1 071818Z 01014KT M01/M02 A3048 RMK A01 T10131020  RH  095%=      5-min Rain = 0
KEA1 071819Z 01015KT M01/M02 A3047 RMK A01 T10121020  RH  095%=      5-min Rain = 0
KEA1 071820Z 00016KT M01/M02 A3047 RMK A01 T10121020  RH  094%=      5-min Rain = 0
KEA1 071821Z 01015KT M01/M02 A3047 RMK A01 T10131021  RH  094%=      5-min Rain = 0
KEA1 071822Z 00013KT M01/M02 A3047 RMK A01 T10141021  RH  094%=      5-min Rain = 0
KEA1 071823Z 01013KT M01/M02 A3046 RMK A01 T10131021  RH  095%=      5-min Rain = 0
KEA1 071824Z 02014KT M01/M02 A3046 RMK A01 T10121019  RH  095%=      5-min Rain = 0
KEA1 071825Z 02013KT M01/M02 A3046 RMK A01 T10121019  RH  095%=      5-min Rain = 0
KEA1 071826Z 02016KT M01/M02 A3046 RMK A01 T10121020  RH  095%=      5-min Rain = 0
KEA1 071827Z 02017KT M01/M02 A3046 RMK A01 T10131021  RH  095%=      5-min Rain = 0
KEA1 071828Z 01017KT M01/M02 A3046 RMK A01 T10141022  RH  094%=      5-min Rain = 0
KEA1 071829Z 01016KT M01/M02 A3046 RMK A01 T10141022  RH  094%=      5-min Rain = 0
KEA1 071830Z 01015KT M01/M02 A3046 RMK A01 T10141022  RH  094%=      5-min Rain = 0
KEA1 071831Z 01015KT M01/M02 A3046 RMK A01 T10141022  RH  094%=      5-min Rain = 0
KEA1 071832Z 01015KT M01/M02 A3046 RMK A01 T10141022  RH  094%=      5-min Rain = 0
KEA1 071833Z 02015KT M01/M02 A3046 RMK A01 T10131022  RH  094%=      5-min Rain = 0
KEA1 071834Z 02015KT M01/M02 A3046 RMK A01 T10131022  RH  094%=      5-min Rain = 0
KEA1 071835Z 02014KT M01/M02 A3046 RMK A01 T10131021  RH  094%=      5-min Rain = 0
KEA1 071836Z 01013KT M01/M02 A3047 RMK A01 T10121020  RH  095%=      5-min Rain = 0
KEA1 071837Z 02013KT M01/M02 A3047 RMK A01 T10111019  RH  095%=      5-min Rain = 0
KEA1 071838Z 01010KT M01/M02 A3047 RMK A01 T10121019  RH  094%=      5-min Rain = 0
KEA1 071839Z 01011KT M01/M02 A3047 RMK A01 T10121019  RH  095%=      5-min Rain = 0
KEA1 071840Z 01015KT M01/M02 A3047 RMK A01 T10121019  RH  095%=      5-min Rain = 0
KEA1 071841Z 01015KT M01/M02 A3047 RMK A01 T10131021  RH  094%=      5-min Rain = 0
KEA1 071842Z 01013KT M01/M02 A3047 RMK A01 T10131021  RH  094%=      5-min Rain = 0
KEA1 071843Z 01013KT M01/M02 A3047 RMK A01 T10131021  RH  094%=      5-min Rain = 0
KEA1 071844Z 36014KT M01/M02 A3047 RMK A01 T10131021  RH  094%=      5-min Rain = 0
KEA1 071845Z 01011KT M01/M02 A3047 RMK A01 T10131021  RH  095%=      5-min Rain = 0
KEA1 071846Z 01014KT M01/M02 A3047 RMK A01 T10121020  RH  095%=      5-min Rain = 0
KEA1 071847Z 01013KT M01/M02 A3047 RMK A01 T10121019  RH  095%=      5-min Rain = 0
KEA1 071848Z 01013KT M01/M02 A3047 RMK A01 T10121020  RH  095%=      5-min Rain = 0
KEA1 071849Z 01014KT M01/M02 A3047 RMK A01 T10131020  RH  095%=      5-min Rain = 0
KEA1 071850Z 01013KT M01/M02 A3047 RMK A01 T10131021  RH  095%=      5-min Rain = 0
KEA1 071851Z 02012KT M01/M02 A3047 RMK A01 T10131021  RH  095%=      5-min Rain = 0
KEA1 071852Z 02011KT M01/M02 A3047 RMK A01 T10131021  RH  095%=      5-min Rain = 0
KEA1 071853Z 01012KT M01/M02 A3047 RMK A01 T10121020  RH  095%=      5-min Rain = 0
KEA1 071854Z 00013KT M01/M02 A3047 RMK A01 T10121019  RH  095%=      5-min Rain = 0
KEA1 071855Z 00012KT M01/M02 A3047 RMK A01 T10121020  RH  095%=      5-min Rain = 0
KEA1 071856Z 00013KT M01/M02 A3047 RMK A01 T10121019  RH  095%=      5-min Rain = 0
KEA1 071857Z 35013KT M01/M02 A3047 RMK A01 T10121019  RH  095%=      5-min Rain = 0
KEA1 071858Z 35014KT M01/M02 A3047 RMK A01 T10121020  RH  095%=      5-min Rain = 0
KEA1 071859Z 35013KT M01/M02 A3047 RMK A01 T10121020  RH  095%=      5-min Rain = 0
KEA1 071900Z 36013KT M01/M02 A3047 RMK A01 T10121020  RH  095%=      5-min Rain = 0
KEA1 071901Z 36012KT M01/M02 A3047 RMK A01 T10121019  RH  095%=      5-min Rain = 0
KEA1 071902Z 36011KT M01/M02 A3047 RMK A01 T10111018  RH  095%=      5-min Rain = 0
KEA1 071903Z 00012KT M01/M02 A3046 RMK A01 T10111018  RH  095%=      5-min Rain = 0
KEA1 071904Z 00012KT M01/M02 A3046 RMK A01 T10111018  RH  095%=      5-min Rain = 0
KEA1 071905Z 01012KT M01/M02 A3046 RMK A01 T10111018  RH  095%=      5-min Rain = 0
KEA1 071906Z 00013KT M01/M02 A3046 RMK A01 T10121019  RH  095%=      5-min Rain = 0
KEA1 071907Z 01014KT M01/M02 A3045 RMK A01 T10111018  RH  095%=      5-min Rain = 0
KEA1 071908Z 01013KT M01/M02 A3045 RMK A01 T10111018  RH  095%=      5-min Rain = 0
KEA1 071909Z 01013KT M01/M02 A3045 RMK A01 T10111018  RH  095%=      5-min Rain = 0
KEA1 071910Z 01013KT M01/M02 A3045 RMK A01 T10111018  RH  095%=      5-min Rain = 0
KEA1 071911Z 01012KT M01/M02 A3045 RMK A01 T10111018  RH  095%=      5-min Rain = 0
KEA1 071912Z 01012KT M01/M02 A3045 RMK A01 T10101017  RH  095%=      5-min Rain = 0
KEA1 071913Z 01013KT M01/M02 A3044 RMK A01 T10101016  RH  095%=      5-min Rain = 0
KEA1 071914Z 01014KT M01/M02 A3044 RMK A01 T10091016  RH  095%=      5-min Rain = 0
KEA1 071915Z 01014KT M01/M02 A3044 RMK A01 T10101016  RH  095%=      5-min Rain = 0
KEA1 071916Z 01014KT M01/M02 A3045 RMK A01 T10091016  RH  095%=      5-min Rain = 0
KEA1 071917Z 01013KT M01/M02 A3045 RMK A01 T10101016  RH  095%=      5-min Rain = 0
KEA1 071918Z 01014KT M01/M02 A3045 RMK A01 T10091016  RH  095%=      5-min Rain = 0
KEA1 071919Z 01014KT M01/M02 A3045 RMK A01 T10101016  RH  095%=      5-min Rain = 0
KEA1 071920Z 01011KT M01/M02 A3045 RMK A01 T10101017  RH  095%=      5-min Rain = 0
KEA1 071921Z 02012KT M01/M02 A3045 RMK A01 T10101016  RH  095%=      5-min Rain = 0
KEA1 071922Z 01012KT M01/M02 A3044 RMK A01 T10101016  RH  095%=      5-min Rain = 0
KEA1 071923Z 01014KT M01/M02 A3044 RMK A01 T10101016  RH  095%=      5-min Rain = 0
KEA1 071924Z 01014KT M01/M02 A3044 RMK A01 T10091016  RH  095%=      5-min Rain = 0
KEA1 071925Z 01012KT M01/M02 A3044 RMK A01 T10101017  RH  095%=      5-min Rain = 0
KEA1 071926Z 01012KT M01/M02 A3044 RMK A01 T10091016  RH  095%=      5-min Rain = 0
KEA1 071927Z 01013KT M01/M02 A3044 RMK A01 T10091016  RH  095%=      5-min Rain = 0
KEA1 071928Z 01013KT M01/M02 A3044 RMK A01 T10091016  RH  095%=      5-min Rain = 0
KEA1 071929Z 01013KT M01/M02 A3044 RMK A01 T10091016  RH  095%=      5-min Rain = 0
KEA1 071930Z 01012KT M01/M02 A3044 RMK A01 T10101017  RH  095%=      5-min Rain = 0
KEA1 071931Z 35011KT M01/M02 A3044 RMK A01 T10101017  RH  095%=      5-min Rain = 0
KEA1 071932Z 01010KT M01/M02 A3044 RMK A01 T10101017  RH  095%=      5-min Rain = 0
KEA1 071933Z 00009KT M01/M02 A3044 RMK A01 T10101017  RH  095%=      5-min Rain = 0
KEA1 071934Z 00014KT M01/M02 A3044 RMK A01 T10091015  RH  096%=      5-min Rain = 0
KEA1 071935Z 01013KT M01/M02 A3044 RMK A01 T10101016  RH  095%=      5-min Rain = 0
KEA1 071936Z 02013KT M01/M02 A3044 RMK A01 T10101016  RH  095%=      5-min Rain = 0
KEA1 071937Z 01011KT M01/M02 A3045 RMK A01 T10101016  RH  095%=      5-min Rain = 0
KEA1 071938Z 01011KT M01/M02 A3045 RMK A01 T10101016  RH  096%=      5-min Rain = 0
KEA1 071939Z 01014KT M01/M02 A3045 RMK A01 T10101016  RH  095%=      5-min Rain = 0
KEA1 071940Z 00014KT M01/M02 A3045 RMK A01 T10111018  RH  095%=      5-min Rain = 0
KEA1 071941Z 36013KT M01/M02 A3045 RMK A01 T10121019  RH  095%=      5-min Rain = 0
KEA1 071942Z 36012KT M01/M02 A3045 RMK A01 T10121019  RH  095%=      5-min Rain = 0
KEA1 071943Z 00010KT M01/M02 A3045 RMK A01 T10121019  RH  095%=      5-min Rain = 0
KEA1 071944Z 36011KT M01/M02 A3046 RMK A01 T10111018  RH  095%=      5-min Rain = 0
KEA1 071945Z 00012KT M01/M02 A3045 RMK A01 T10111017  RH  095%=      5-min Rain = 0
KEA1 071946Z 01009KT M01/M02 A3045 RMK A01 T10111018  RH  095%=      5-min Rain = 0
KEA1 071947Z 01009KT M01/M02 A3045 RMK A01 T10101017  RH  095%=      5-min Rain = 0
KEA1 071948Z 01011KT M01/M02 A3045 RMK A01 T10101016  RH  095%=      5-min Rain = 0
KEA1 071949Z 01012KT M01/M02 A3045 RMK A01 T10101017  RH  095%=      5-min Rain = 0
KEA1 071950Z 01012KT M01/M02 A3045 RMK A01 T10101017  RH  095%=      5-min Rain = 0
KEA1 071951Z 01012KT M01/M02 A3045 RMK A01 T10111018  RH  095%=      5-min Rain = 0
KEA1 071952Z 00011KT M01/M02 A3045 RMK A01 T10101018  RH  095%=      5-min Rain = 0
KEA1 071953Z 00012KT M01/M02 A3045 RMK A01 T10111018  RH  095%=      5-min Rain = 0
KEA1 071954Z 00011KT M01/M02 A3045 RMK A01 T10111018  RH  095%=      5-min Rain = 0
KEA1 071955Z 00011KT M01/M02 A3045 RMK A01 T10111017  RH  095%=      5-min Rain = 0
KEA1 071956Z 36013KT M01/M02 A3045 RMK A01 T10111018  RH  095%=      5-min Rain = 0
KEA1 071957Z 36013KT M01/M02 A3045 RMK A01 T10111018  RH  095%=      5-min Rain = 0
KEA1 071958Z 35012KT M01/M02 A3045 RMK A01 T10111018  RH  095%=      5-min Rain = 0
KEA1 071959Z 35012KT M01/M02 A3045 RMK A01 T10111018  RH  095%=      5-min Rain = 0
KEA1 072000Z 35012KT M01/M02 A3044 RMK A01 T10111018  RH  095%=      5-min Rain = 0
KEA1 072001Z 36011KT M01/M02 A3044 RMK A01 T10101017  RH  095%=      5-min Rain = 0
KEA1 072002Z 35013KT M01/M02 A3045 RMK A01 T10101016  RH  095%=      5-min Rain = 0
KEA1 072003Z 35013KT M01/M02 A3045 RMK A01 T10101017  RH  095%=      5-min Rain = 0
KEA1 072004Z 00013KT M01/M02 A3045 RMK A01 T10101017  RH  095%=      5-min Rain = 0
KEA1 072005Z 00012KT M01/M02 A3045 RMK A01 T10101017  RH  095%=      5-min Rain = 0
KEA1 072006Z 00012KT M01/M02 A3045 RMK A01 T10111018  RH  095%=      5-min Rain = 0
KEA1 072007Z 36012KT M01/M02 A3045 RMK A01 T10111018  RH  095%=      5-min Rain = 0
KEA1 072008Z 00010KT M01/M02 A3045 RMK A01 T10111018  RH  095%=      5-min Rain = 0
KEA1 072009Z 00011KT M01/M02 A3045 RMK A01 T10111018  RH  095%=      5-min Rain = 0
KEA1 072010Z 36012KT M01/M02 A3045 RMK A01 T10111017  RH  095%=      5-min Rain = 0
KEA1 072011Z 00012KT M01/M02 A3045 RMK A01 T10111018  RH  095%=      5-min Rain = 0
KEA1 072012Z 00011KT M01/M02 A3045 RMK A01 T10111018  RH  095%=      5-min Rain = 0
KEA1 072013Z 00013KT M01/M02 A3044 RMK A01 T10111019  RH  095%=      5-min Rain = 0
KEA1 072014Z 00014KT M01/M02 A3044 RMK A01 T10111018  RH  095%=      5-min Rain = 0
KEA1 072015Z 00014KT M01/M02 A3044 RMK A01 T10111018  RH  095%=      5-min Rain = 0
KEA1 072016Z 01013KT M01/M02 A3044 RMK A01 T10111018  RH  095%=      5-min Rain = 0
KEA1 072017Z 01012KT M01/M02 A3044 RMK A01 T10111018  RH  095%=      5-min Rain = 0
KEA1 072018Z 01013KT M01/M02 A3044 RMK A01 T10111018  RH  095%=      5-min Rain = 0
KEA1 072019Z 01011KT M01/M02 A3044 RMK A01 T10111018  RH  095%=      5-min Rain = 0
KEA1 072020Z 01012KT M01/M02 A3044 RMK A01 T10101017  RH  095%=      5-min Rain = 0
KEA1 072021Z 02014KT M01/M02 A3043 RMK A01 T10111018  RH  095%=      5-min Rain = 0
KEA1 072022Z 02012KT M01/M02 A3043 RMK A01 T10111018  RH  095%=      5-min Rain = 0
KEA1 072023Z 02014KT M01/M02 A3043 RMK A01 T10111018  RH  095%=      5-min Rain = 0
KEA1 072024Z 02013KT M01/M02 A3043 RMK A01 T10111018  RH  095%=      5-min Rain = 0
KEA1 072025Z 02012KT M01/M02 A3043 RMK A01 T10111018  RH  095%=      5-min Rain = 0
KEA1 072026Z 02010KT M01/M02 A3043 RMK A01 T10111017  RH  095%=      5-min Rain = 0
KEA1 072027Z 02013KT M01/M02 A3043 RMK A01 T10101016  RH  095%=      5-min Rain = 0
KEA1 072028Z 02014KT M01/M02 A3043 RMK A01 T10101017  RH  095%=      5-min Rain = 0
KEA1 072029Z 02014KT M01/M02 A3043 RMK A01 T10101016  RH  095%=      5-min Rain = 0
KEA1 072030Z 01014KT M01/M02 A3043 RMK A01 T10101017  RH  095%=      5-min Rain = 0
KEA1 072031Z 01015KT M01/M02 A3043 RMK A01 T10111018  RH  095%=      5-min Rain = 0
KEA1 072032Z 00014KT M01/M02 A3043 RMK A01 T10111018  RH  095%=      5-min Rain = 0
KEA1 072033Z 01014KT M01/M02 A3043 RMK A01 T10111018  RH  095%=      5-min Rain = 0
KEA1 072034Z 01013KT M01/M02 A3043 RMK A01 T10111018  RH  095%=      5-min Rain = 0
KEA1 072035Z 01012KT M01/M02 A3044 RMK A01 T10111018  RH  095%=      5-min Rain = 0
KEA1 072036Z 01012KT M01/M02 A3044 RMK A01 T10111018  RH  095%=      5-min Rain = 0
KEA1 072037Z 01012KT M01/M02 A3044 RMK A01 T10111018  RH  095%=      5-min Rain = 0
KEA1 072038Z 01010KT M01/M02 A3044 RMK A01 T10111018  RH  095%=      5-min Rain = 0
KEA1 072039Z 02010KT M01/M02 A3044 RMK A01 T10101017  RH  095%=      5-min Rain = 0
KEA1 072040Z 02014KT M01/M02 A3044 RMK A01 T10091016  RH  095%=      5-min Rain = 0
KEA1 072041Z 02014KT M01/M02 A3044 RMK A01 T10101017  RH  095%=      5-min Rain = 0
KEA1 072042Z 01014KT M01/M02 A3044 RMK A01 T10101018  RH  095%=      5-min Rain = 0
KEA1 072043Z 01012KT M01/M02 A3044 RMK A01 T10111018  RH  095%=      5-min Rain = 0
KEA1 072044Z 36011KT M01/M02 A3044 RMK A01 T10111019  RH  095%=      5-min Rain = 0
KEA1 072045Z 36012KT M01/M02 A3044 RMK A01 T10111019  RH  095%=      5-min Rain = 0
KEA1 072046Z 36012KT M01/M02 A3044 RMK A01 T10111019  RH  095%=      5-min Rain = 0
KEA1 072047Z 36011KT M01/M02 A3044 RMK A01 T10111018  RH  095%=      5-min Rain = 0
KEA1 072048Z 01011KT M01/M02 A3044 RMK A01 T10121019  RH  095%=      5-min Rain = 0
KEA1 072049Z 01009G14KT M01/M02 A3044 RMK A01 T10111019  RH  095%=      5-min Rain = 0
KEA1 072050Z 02013KT M01/M02 A3044 RMK A01 T10111018  RH  095%=      5-min Rain = 0
KEA1 072051Z 02013KT M01/M02 A3044 RMK A01 T10111018  RH  095%=      5-min Rain = 0
KEA1 072052Z 01012KT M01/M02 A3044 RMK A01 T10111018  RH  095%=      5-min Rain = 0
KEA1 072053Z 02013KT M01/M02 A3044 RMK A01 T10111018  RH  095%=      5-min Rain = 0
KEA1 072054Z 01012KT M01/M02 A3044 RMK A01 T10111018  RH  095%=      5-min Rain = 0
KEA1 072055Z 01012KT M01/M02 A3044 RMK A01 T10121019  RH  095%=      5-min Rain = 0
KEA1 072056Z 01011KT M01/M02 A3044 RMK A01 T10111018  RH  095%=      5-min Rain = 0
KEA1 072057Z 02012KT M01/M02 A3044 RMK A01 T10111018  RH  095%=      5-min Rain = 0
KEA1 072058Z 01010KT M01/M02 A3044 RMK A01 T10111018  RH  095%=      5-min Rain = 0
KEA1 072059Z 01011KT M01/M02 A3044 RMK A01 T10111018  RH  095%=      5-min Rain = 0
KEA1 072100Z 01011KT M01/M02 A3043 RMK A01 T10111017  RH  095%=      5-min Rain = 0
KEA1 072101Z 01011KT M01/M02 A3043 RMK A01 T10101017  RH  095%=      5-min Rain = 0
KEA1 072102Z 02011KT M01/M02 A3043 RMK A01 T10101017  RH  095%=      5-min Rain = 0
KEA1 072103Z 01014KT M01/M02 A3043 RMK A01 T10101017  RH  095%=      5-min Rain = 0
KEA1 072104Z 01013KT M01/M02 A3043 RMK A01 T10101017  RH  095%=      5-min Rain = 0
KEA1 072105Z 01013KT M01/M02 A3044 RMK A01 T10111018  RH  095%=      5-min Rain = 0
KEA1 072106Z 01012KT M01/M02 A3044 RMK A01 T10111018  RH  095%=      5-min Rain = 0
KEA1 072107Z 01012KT M01/M02 A3044 RMK A01 T10111018  RH  095%=      5-min Rain = 0
KEA1 072108Z 01010KT M01/M02 A3044 RMK A01 T10111018  RH  095%=      5-min Rain = 0
KEA1 072109Z 01011KT M01/M02 A3044 RMK A01 T10101018  RH  095%=      5-min Rain = 0
KEA1 072110Z 00011KT M01/M02 A3044 RMK A01 T10101018  RH  095%=      5-min Rain = 0
KEA1 072111Z 01012KT M01/M02 A3044 RMK A01 T10101018  RH  095%=      5-min Rain = 0
KEA1 072112Z 01013KT M01/M02 A3044 RMK A01 T10101018  RH  095%=      5-min Rain = 0
KEA1 072113Z 01011KT M01/M02 A3044 RMK A01 T10111019  RH  094%=      5-min Rain = 0
KEA1 072114Z 02011KT M01/M02 A3044 RMK A01 T10111019  RH  095%=      5-min Rain = 0
KEA1 072115Z 01011KT M01/M02 A3044 RMK A01 T10101018  RH  095%=      5-min Rain = 0
KEA1 072116Z 01011KT M01/M02 A3044 RMK A01 T10111018  RH  095%=      5-min Rain = 0
KEA1 072117Z 01012KT M01/M02 A3044 RMK A01 T10101017  RH  095%=      5-min Rain = 0
KEA1 072118Z 00012KT M01/M02 A3044 RMK A01 T10101017  RH  095%=      5-min Rain = 0
KEA1 072119Z 01009KT M01/M02 A3044 RMK A01 T10101018  RH  095%=      5-min Rain = 0
KEA1 072120Z 01011KT M01/M02 A3044 RMK A01 T10101017  RH  095%=      5-min Rain = 0
KEA1 072121Z 01012KT M01/M02 A3044 RMK A01 T10091017  RH  095%=      5-min Rain = 0
KEA1 072122Z 01011KT M01/M02 A3044 RMK A01 T10101017  RH  095%=      5-min Rain = 0
KEA1 072123Z 01011KT M01/M02 A3044 RMK A01 T10091017  RH  095%=      5-min Rain = 0
KEA1 072124Z 00009KT M01/M02 A3044 RMK A01 T10091017  RH  095%=      5-min Rain = 0
KEA1 072125Z 36009KT M01/M02 A3045 RMK A01 T10091016  RH  095%=      5-min Rain = 0
KEA1 072126Z 01009KT M01/M02 A3045 RMK A01 T10091016  RH  095%=      5-min Rain = 0
KEA1 072127Z 00009KT M01/M02 A3045 RMK A01 T10091016  RH  095%=      5-min Rain = 0
KEA1 072128Z 01010KT M01/M02 A3045 RMK A01 T10081015  RH  095%=      5-min Rain = 0
KEA1 072129Z 01011KT M01/M02 A3045 RMK A01 T10081015  RH  095%=      5-min Rain = 0
KEA1 072130Z 01011KT M01/M02 A3045 RMK A01 T10091016  RH  095%=      5-min Rain = 0
KEA1 072131Z 01010KT M01/M02 A3045 RMK A01 T10101018  RH  095%=      5-min Rain = 0
KEA1 072132Z 01010KT M01/M02 A3045 RMK A01 T10101017  RH  095%=      5-min Rain = 0
KEA1 072133Z 01010KT M01/M02 A3045 RMK A01 T10101017  RH  095%=      5-min Rain = 0
KEA1 072134Z 00011KT M01/M02 A3045 RMK A01 T10091016  RH  095%=      5-min Rain = 0
KEA1 072135Z 00012KT M01/M02 A3045 RMK A01 T10091017  RH  095%=      5-min Rain = 0
KEA1 072136Z 00011KT M01/M02 A3045 RMK A01 T10091017  RH  095%=      5-min Rain = 0
KEA1 072137Z 01010KT M01/M02 A3045 RMK A01 T10091017  RH  095%=      5-min Rain = 0
KEA1 072138Z 01010KT M01/M02 A3045 RMK A01 T10101017  RH  095%=      5-min Rain = 0
KEA1 072139Z 00009KT M01/M02 A3045 RMK A01 T10101017  RH  095%=      5-min Rain = 0
KEA1 072140Z 00010KT M01/M02 A3045 RMK A01 T10091016  RH  095%=      5-min Rain = 0
KEA1 072141Z 36009KT M01/M02 A3045 RMK A01 T10091016  RH  095%=      5-min Rain = 0
KEA1 072142Z 35010KT M01/M02 A3045 RMK A01 T10091017  RH  095%=      5-min Rain = 0
KEA1 072143Z 36009KT M01/M02 A3045 RMK A01 T10091017  RH  095%=      5-min Rain = 0
KEA1 072144Z 01011KT M01/M02 A3045 RMK A01 T10101017  RH  095%=      5-min Rain = 0
KEA1 072145Z 01010KT M01/M02 A3045 RMK A01 T10101017  RH  095%=      5-min Rain = 0
KEA1 072146Z 01010KT M01/M02 A3045 RMK A01 T10101017  RH  095%=      5-min Rain = 0
KEA1 072147Z 01011KT M01/M02 A3044 RMK A01 T10091016  RH  095%=      5-min Rain = 0
KEA1 072148Z 01010KT M01/M02 A3044 RMK A01 T10101017  RH  095%=      5-min Rain = 0
KEA1 072149Z 01011KT M01/M02 A3044 RMK A01 T10101017  RH  095%=      5-min Rain = 0
KEA1 072150Z 01010KT M01/M02 A3044 RMK A01 T10101017  RH  095%=      5-min Rain = 0
KEA1 072151Z 01008KT M01/M02 A3044 RMK A01 T10091016  RH  095%=      5-min Rain = 0
KEA1 072152Z 01008KT M01/M02 A3044 RMK A01 T10091016  RH  095%=      5-min Rain = 0
KEA1 072153Z 01009KT M01/M02 A3044 RMK A01 T10081015  RH  095%=      5-min Rain = 0
KEA1 072154Z 01009KT M01/M02 A3044 RMK A01 T10091015  RH  095%=      5-min Rain = 0
KEA1 072155Z 01008KT M01/M02 A3044 RMK A01 T10081015  RH  095%=      5-min Rain = 0
KEA1 072156Z 00008KT M01/M02 A3044 RMK A01 T10091015  RH  095%=      5-min Rain = 0
KEA1 072157Z 00008KT M01/M02 A3044 RMK A01 T10081015  RH  095%=      5-min Rain = 0
KEA1 072158Z 00008KT M01/M01 A3044 RMK A01 T10081014  RH  096%=      5-min Rain = 0
KEA1 072159Z 01006KT M01/M01 A3044 RMK A01 T10081014  RH  095%=      5-min Rain = 0
KEA1 072200Z 01008KT M01/M01 A3044 RMK A01 T10081014  RH  096%=      5-min Rain = 0
KEA1 072201Z 00006KT M01/M01 A3044 RMK A01 T10081014  RH  096%=      5-min Rain = 0
KEA1 072202Z 01007KT M01/M01 A3044 RMK A01 T10081014  RH  096%=      5-min Rain = 0
KEA1 072203Z 01008KT M01/M01 A3044 RMK A01 T10081014  RH  096%=      5-min Rain = 0
KEA1 072204Z 01008KT M01/M01 A3044 RMK A01 T10081014  RH  096%=      5-min Rain = 0
KEA1 072205Z 01008KT M01/M01 A3044 RMK A01 T10071014  RH  096%=      5-min Rain = 0
KEA1 072206Z 01010KT M01/M01 A3044 RMK A01 T10081014  RH  096%=      5-min Rain = 0
KEA1 072207Z 01009KT M01/M01 A3044 RMK A01 T10081014  RH  096%=      5-min Rain = 0
KEA1 072208Z 01009KT M01/M02 A3044 RMK A01 T10081015  RH  096%=      5-min Rain = 0
KEA1 072209Z 01008KT M01/M01 A3044 RMK A01 T10081014  RH  096%=      5-min Rain = 0
KEA1 072210Z 01009KT M01/M01 A3044 RMK A01 T10071013  RH  096%=      5-min Rain = 0
KEA1 072211Z 01007KT M01/M01 A3044 RMK A01 T10071013  RH  096%=      5-min Rain = 0
KEA1 072212Z 01009KT M01/M01 A3044 RMK A01 T10071013  RH  096%=      5-min Rain = 0
KEA1 072213Z 01009KT M01/M01 A3044 RMK A01 T10071013  RH  096%=      5-min Rain = 0
KEA1 072214Z 01008KT M01/M01 A3044 RMK A01 T10081014  RH  096%=      5-min Rain = 0
KEA1 072215Z 01009KT M01/M01 A3044 RMK A01 T10081013  RH  096%=      5-min Rain = 0
KEA1 072216Z 00008KT M01/M01 A3044 RMK A01 T10071013  RH  096%=      5-min Rain = 0
KEA1 072217Z 00008KT M01/M01 A3044 RMK A01 T10071013  RH  096%=      5-min Rain = 0
KEA1 072218Z 01009KT M01/M01 A3044 RMK A01 T10071013  RH  096%=      5-min Rain = 0
KEA1 072219Z 00010KT M01/M01 A3044 RMK A01 T10081014  RH  096%=      5-min Rain = 0
KEA1 072220Z 00009KT M01/M01 A3044 RMK A01 T10081013  RH  096%=      5-min Rain = 0
KEA1 072221Z 35009KT M01/M01 A3044 RMK A01 T10081014  RH  096%=      5-min Rain = 0
KEA1 072222Z 35009KT M01/M01 A3044 RMK A01 T10081013  RH  096%=      5-min Rain = 0
KEA1 072223Z 35009KT M01/M01 A3044 RMK A01 T10081013  RH  096%=      5-min Rain = 0
KEA1 072224Z 36009KT M01/M01 A3044 RMK A01 T10071013  RH  096%=      5-min Rain = 0
KEA1 072225Z 36008KT M01/M01 A3044 RMK A01 T10081013  RH  096%=      5-min Rain = 0
KEA1 072226Z 00008KT M01/M01 A3044 RMK A01 T10071013  RH  096%=      5-min Rain = 0
KEA1 072227Z 00008KT M01/M01 A3044 RMK A01 T10081013  RH  096%=      5-min Rain = 0
KEA1 072228Z 01008KT M01/M01 A3044 RMK A01 T10081013  RH  096%=      5-min Rain = 0
KEA1 072229Z 00009KT M01/M01 A3044 RMK A01 T10071013  RH  096%=      5-min Rain = 0
KEA1 072230Z 01009KT M01/M01 A3044 RMK A01 T10071012  RH  096%=      5-min Rain = 0
KEA1 072231Z 01009KT M01/M01 A3044 RMK A01 T10071012  RH  096%=      5-min Rain = 0
KEA1 072232Z 01010KT M01/M01 A3044 RMK A01 T10071012  RH  096%=      5-min Rain = 0
KEA1 072233Z 01010KT M01/M01 A3044 RMK A01 T10071013  RH  096%=      5-min Rain = 0
KEA1 072234Z 01010KT M01/M01 A3043 RMK A01 T10071012  RH  096%=      5-min Rain = 0
KEA1 072235Z 02010KT M01/M01 A3043 RMK A01 T10071013  RH  096%=      5-min Rain = 0
KEA1 072236Z 02009KT M01/M01 A3043 RMK A01 T10081013  RH  096%=      5-min Rain = 0
KEA1 072237Z 02011KT M01/M01 A3043 RMK A01 T10081013  RH  096%=      5-min Rain = 0
KEA1 072238Z 02011KT M01/M01 A3043 RMK A01 T10071013  RH  096%=      5-min Rain = 0
KEA1 072239Z 02009KT M01/M01 A3043 RMK A01 T10081013  RH  096%=      5-min Rain = 0
KEA1 072240Z 02010KT M01/M01 A3043 RMK A01 T10071012  RH  096%=      5-min Rain = 0
KEA1 072241Z 02010KT M01/M01 A3043 RMK A01 T10071012  RH  096%=      5-min Rain = 0
KEA1 072242Z 02010KT M01/M01 A3043 RMK A01 T10071012  RH  097%=      5-min Rain = 0
KEA1 072243Z 02010KT M01/M01 A3043 RMK A01 T10071012  RH  097%=      5-min Rain = 0
KEA1 072244Z 02010KT M01/M01 A3043 RMK A01 T10061011  RH  097%=      5-min Rain = 0
KEA1 072245Z 01008KT M01/M01 A3043 RMK A01 T10061011  RH  097%=      5-min Rain = 0
KEA1 072246Z 01010KT M01/M01 A3043 RMK A01 T10061011  RH  097%=      5-min Rain = 0
KEA1 072247Z 01010KT M01/M01 A3043 RMK A01 T10061011  RH  097%=      5-min Rain = 0
KEA1 072248Z 01010KT M01/M01 A3043 RMK A01 T10071012  RH  097%=      5-min Rain = 0
KEA1 072249Z 01007KT M01/M01 A3044 RMK A01 T10071012  RH  097%=      5-min Rain = 0
KEA1 072250Z 36007KT M01/M01 A3044 RMK A01 T10061011  RH  097%=      5-min Rain = 0
KEA1 072251Z 00009KT M01/M01 A3044 RMK A01 T10061011  RH  097%=      5-min Rain = 0
KEA1 072252Z 36007KT M01/M01 A3044 RMK A01 T10061011  RH  097%=      5-min Rain = 0
KEA1 072253Z 36007KT M01/M01 A3044 RMK A01 T10071011  RH  097%=      5-min Rain = 0
KEA1 072254Z 00006KT M01/M01 A3044 RMK A01 T10071011  RH  097%=      5-min Rain = 0
KEA1 072255Z 36005KT M01/M01 A3044 RMK A01 T10061011  RH  097%=      5-min Rain = 0
KEA1 072256Z 01008KT M01/M01 A3044 RMK A01 T10061011  RH  097%=      5-min Rain = 0
KEA1 072257Z 00007KT M01/M01 A3044 RMK A01 T10061011  RH  097%=      5-min Rain = 0
KEA1 072258Z 36008KT M01/M01 A3044 RMK A01 T10061010  RH  097%=      5-min Rain = 0
KEA1 072259Z 36008KT M01/M01 A3044 RMK A01 T10061010  RH  097%=      5-min Rain = 0
KEA1 072300Z 36008KT M01/M01 A3044 RMK A01 T10061010  RH  097%=      5-min Rain = 0
KEA1 072301Z 36009KT M01/M01 A3044 RMK A01 T10071011  RH  097%=      5-min Rain = 0
KEA1 072302Z 00007KT M01/M01 A3044 RMK A01 T10071012  RH  097%=      5-min Rain = 0
KEA1 072303Z 01006KT M01/M01 A3044 RMK A01 T10071011  RH  097%=      5-min Rain = 0
KEA1 072304Z 01006KT M01/M01 A3044 RMK A01 T10061011  RH  097%=      5-min Rain = 0
KEA1 072305Z 01005KT M01/M01 A3044 RMK A01 T10061010  RH  097%=      5-min Rain = 0
KEA1 072306Z 01005KT M01/M01 A3044 RMK A01 T10061011  RH  097%=      5-min Rain = 0
KEA1 072307Z 01005KT M01/M01 A3045 RMK A01 T10061011  RH  097%=      5-min Rain = 0
KEA1 072308Z 00006KT M01/M01 A3045 RMK A01 T10061010  RH  097%=      5-min Rain = 0
KEA1 072309Z 01006KT M01/M01 A3045 RMK A01 T10061010  RH  097%=      5-min Rain = 0
KEA1 072310Z 01005KT M01/M01 A3045 RMK A01 T10061010  RH  097%=      5-min Rain = 0
KEA1 072311Z 00004KT M01/M01 A3045 RMK A01 T10061011  RH  097%=      5-min Rain = 0
KEA1 072312Z 00004KT M01/M01 A3045 RMK A01 T10061010  RH  097%=      5-min Rain = 0
KEA1 072313Z 00005KT M01/M01 A3045 RMK A01 T10061010  RH  097%=      5-min Rain = 0
KEA1 072314Z 00005KT M01/M01 A3045 RMK A01 T10061011  RH  097%=      5-min Rain = 0
KEA1 072315Z 01005KT M01/M01 A3045 RMK A01 T10061011  RH  097%=      5-min Rain = 0
KEA1 072316Z 00005KT M01/M01 A3045 RMK A01 T10061011  RH  097%=      5-min Rain = 0
KEA1 072317Z 36005KT M01/M01 A3045 RMK A01 T10061010  RH  097%=      5-min Rain = 0
KEA1 072318Z 35005KT M01/M01 A3045 RMK A01 T10061011  RH  097%=      5-min Rain = 0
KEA1 072319Z 35005KT M01/M01 A3045 RMK A01 T10061010  RH  097%=      5-min Rain = 0
KEA1 072320Z 35006KT M01/M01 A3045 RMK A01 T10061011  RH  097%=      5-min Rain = 0
KEA1 072321Z 35006KT M01/M01 A3045 RMK A01 T10061010  RH  097%=      5-min Rain = 0
KEA1 072322Z 00005KT M01/M01 A3045 RMK A01 T10061010  RH  097%=      5-min Rain = 0
KEA1 072323Z 00007KT M01/M01 A3044 RMK A01 T10061010  RH  097%=      5-min Rain = 0
KEA1 072324Z 36005KT M01/M01 A3044 RMK A01 T10061010  RH  097%=      5-min Rain = 0
KEA1 072325Z 36007KT M01/M01 A3044 RMK A01 T10061010  RH  097%=      5-min Rain = 0
KEA1 072326Z 35007KT M01/M01 A3044 RMK A01 T10051010  RH  097%=      5-min Rain = 0
KEA1 072327Z 36007KT M01/M01 A3044 RMK A01 T10051009  RH  097%=      5-min Rain = 0
KEA1 072328Z 36007KT M01/M01 A3044 RMK A01 T10051010  RH  097%=      5-min Rain = 0
KEA1 072329Z 35006KT M01/M01 A3044 RMK A01 T10051009  RH  097%=      5-min Rain = 0
KEA1 072330Z 00007KT M01/M01 A3044 RMK A01 T10051009  RH  097%=      5-min Rain = 0
KEA1 072331Z 36007KT M01/M01 A3044 RMK A01 T10051009  RH  097%=      5-min Rain = 0
KEA1 072332Z 36008KT M01/M01 A3044 RMK A01 T10051009  RH  097%=      5-min Rain = 0
KEA1 072333Z 00007KT M01/M01 A3044 RMK A01 T10051009  RH  097%=      5-min Rain = 0
KEA1 072334Z 36006KT M01/M01 A3044 RMK A01 T10051009  RH  097%=      5-min Rain = 0
KEA1 072335Z 36006KT M01/M01 A3044 RMK A01 T10051009  RH  097%=      5-min Rain = 0
KEA1 072336Z 36006KT M01/M01 A3044 RMK A01 T10051009  RH  097%=      5-min Rain = 0
KEA1 072337Z 35006KT M00/M01 A3044 RMK A01 T10041008  RH  097%=      5-min Rain = 0
KEA1 072338Z 36007KT M00/M01 A3044 RMK A01 T10041008  RH  097%=      5-min Rain = 0
KEA1 072339Z 36006KT M00/M01 A3044 RMK A01 T10041009  RH  097%=      5-min Rain = 0
KEA1 072340Z 35007KT M00/M01 A3044 RMK A01 T10041009  RH  097%=      5-min Rain = 0
KEA1 072341Z 36007KT M00/M01 A3044 RMK A01 T10041008  RH  097%=      5-min Rain = 0
KEA1 072342Z 36007KT M00/M01 A3044 RMK A01 T10041009  RH  097%=      5-min Rain = 0
KEA1 072343Z 01007KT M00/M01 A3044 RMK A01 T10041008  RH  097%=      5-min Rain = 0
KEA1 072344Z 00007KT M00/M01 A3044 RMK A01 T10041008  RH  097%=      5-min Rain = 0
KEA1 072345Z 01005KT M00/M01 A3044 RMK A01 T10041009  RH  097%=      5-min Rain = 0
KEA1 072346Z 01006KT M00/M01 A3044 RMK A01 T10041009  RH  097%=      5-min Rain = 0
KEA1 072347Z 00005KT M00/M01 A3044 RMK A01 T10041008  RH  097%=      5-min Rain = 0
KEA1 072348Z 01005KT M01/M01 A3044 RMK A01 T10051009  RH  097%=      5-min Rain = 0
KEA1 072349Z 01006KT M00/M01 A3044 RMK A01 T10041008  RH  097%=      5-min Rain = 0
KEA1 072350Z 01006KT M00/M01 A3044 RMK A01 T10041008  RH  097%=      5-min Rain = 0
KEA1 072351Z 01006KT M00/M01 A3044 RMK A01 T10041008  RH  097%=      5-min Rain = 0
KEA1 072352Z 00007KT M00/M01 A3044 RMK A01 T10041008  RH  097%=      5-min Rain = 0
KEA1 072353Z 00007KT M00/M01 A3044 RMK A01 T10041008  RH  097%=      5-min Rain = 0
KEA1 072354Z 01006KT M00/M01 A3044 RMK A01 T10041008  RH  097%=      5-min Rain = 0
KEA1 072355Z 00005KT M00/M01 A3044 RMK A01 T10041008  RH  097%=      5-min Rain = 0
KEA1 072356Z 36005KT M01/M01 A3044 RMK A01 T10051009  RH  097%=      5-min Rain = 0
KEA1 072357Z 00004KT M00/M01 A3044 RMK A01 T10041009  RH  097%=      5-min Rain = 0
KEA1 072358Z 01004KT M00/M01 A3045 RMK A01 T10041008  RH  097%=      5-min Rain = 0
KEA1 072359Z 01004KT M00/M01 A3045 RMK A01 T10041008  RH  097%=      5-min Rain = 0
KEA1 080000Z 01005KT M00/M01 A3045 RMK A01 T10041008  RH  097%=      5-min Rain = 0
KEA1 080001Z 02005KT M00/M01 A3045 RMK A01 T10041008  RH  097%=      5-min Rain = 0
KEA1 080002Z 01005KT M00/M01 A3045 RMK A01 T10041008  RH  097%=      5-min Rain = 0
KEA1 080003Z 01005KT M00/M01 A3045 RMK A01 T10041008  RH  097%=      5-min Rain = 0
KEA1 080004Z 01005KT M00/M01 A3045 RMK A01 T10041008  RH  097%=      5-min Rain = 0
KEA1 080005Z 01006KT M00/M01 A3045 RMK A01 T10041008  RH  097%=      5-min Rain = 0
KEA1 080006Z 01006KT M00/M01 A3045 RMK A01 T10041008  RH  097%=      5-min Rain = 0
KEA1 080007Z 01006KT M00/M01 A3045 RMK A01 T10041008  RH  097%=      5-min Rain = 0
KEA1 080008Z 01006KT M00/M01 A3044 RMK A01 T10041008  RH  097%=      5-min Rain = 0
KEA1 080009Z 01007KT M00/M01 A3044 RMK A01 T10041008  RH  097%=      5-min Rain = 0
KEA1 080010Z 01007KT M00/M01 A3044 RMK A01 T10041008  RH  097%=      5-min Rain = 0
KEA1 080011Z 01006KT M00/M01 A3044 RMK A01 T10041008  RH  097%=      5-min Rain = 0
KEA1 080012Z 01006KT M00/M01 A3044 RMK A01 T10041008  RH  097%=      5-min Rain = 0
KEA1 080013Z 01005KT M00/M01 A3044 RMK A01 T10041008  RH  097%=      5-min Rain = 0
KEA1 080014Z 01004KT M00/M01 A3045 RMK A01 T10031007  RH  097%=      5-min Rain = 0
KEA1 080015Z 01004KT M00/M01 A3045 RMK A01 T10031007  RH  097%=      5-min Rain = 0
KEA1 080016Z 01004KT M00/M01 A3045 RMK A01 T10031007  RH  097%=      5-min Rain = 0
KEA1 080017Z 02006KT M00/M01 A3044 RMK A01 T10031006  RH  097%=      5-min Rain = 0
KEA1 080018Z 02007KT M00/M01 A3044 RMK A01 T10031007  RH  097%=      5-min Rain = 0
KEA1 080019Z 02007KT M00/M01 A3044 RMK A01 T10031007  RH  097%=      5-min Rain = 0
KEA1 080020Z 02008KT M00/M01 A3044 RMK A01 T10031007  RH  097%=      5-min Rain = 0
KEA1 080021Z 02007KT M00/M01 A3044 RMK A01 T10031007  RH  097%=      5-min Rain = 0
KEA1 080022Z 02009KT M00/M01 A3044 RMK A01 T10031007  RH  097%=      5-min Rain = 0
KEA1 080023Z 02008KT M00/M01 A3044 RMK A01 T10031007  RH  097%=      5-min Rain = 0
KEA1 080024Z 02008KT M00/M01 A3044 RMK A01 T10031007  RH  097%=      5-min Rain = 0
KEA1 080025Z 02006KT M00/M01 A3044 RMK A01 T10031007  RH  097%=      5-min Rain = 0
KEA1 080026Z 02007KT M00/M01 A3044 RMK A01 T10031007  RH  097%=      5-min Rain = 0
KEA1 080027Z 02008KT M00/M01 A3044 RMK A01 T10021006  RH  097%=      5-min Rain = 0
KEA1 080028Z 02007KT M00/M01 A3044 RMK A01 T10031006  RH  097%=      5-min Rain = 0
KEA1 080029Z 02006KT M00/M01 A3044 RMK A01 T10031007  RH  097%=      5-min Rain = 0
KEA1 080030Z 02007KT M00/M01 A3044 RMK A01 T10031006  RH  097%=      5-min Rain = 0
KEA1 080031Z 02005KT M00/M01 A3045 RMK A01 T10021006  RH  097%=      5-min Rain = 0
KEA1 080032Z 01005KT M00/M01 A3045 RMK A01 T10021006  RH  097%=      5-min Rain = 0
KEA1 080033Z 00005KT M00/M01 A3045 RMK A01 T10021006  RH  097%=      5-min Rain = 0
KEA1 080034Z 36005KT M00/M01 A3045 RMK A01 T10021006  RH  097%=      5-min Rain = 0
KEA1 080035Z 00004KT M00/M01 A3045 RMK A01 T10021006  RH  097%=      5-min Rain = 0
KEA1 080036Z 01004KT M00/M01 A3045 RMK A01 T10021005  RH  097%=      5-min Rain = 0
KEA1 080037Z 01004KT M00/M01 A3045 RMK A01 T10021005  RH  097%=      5-min Rain = 0
KEA1 080038Z 00006KT M00/M01 A3045 RMK A01 T10011005  RH  097%=      5-min Rain = 0
KEA1 080039Z 01006KT M00/M01 A3045 RMK A01 T10021005  RH  097%=      5-min Rain = 0
KEA1 080040Z 01006KT M00/M01 A3045 RMK A01 T10011005  RH  097%=      5-min Rain = 0
KEA1 080041Z 01005KT M00/M01 A3045 RMK A01 T10021005  RH  097%=      5-min Rain = 0
KEA1 080042Z 00004KT M00/M01 A3045 RMK A01 T10021006  RH  097%=      5-min Rain = 0
KEA1 080043Z 36005KT M00/M01 A3045 RMK A01 T10021005  RH  097%=      5-min Rain = 0
KEA1 080044Z 00005KT M00/M01 A3045 RMK A01 T10021005  RH  097%=      5-min Rain = 0
KEA1 080045Z 01005KT M00/M01 A3045 RMK A01 T10021005  RH  097%=      5-min Rain = 0
KEA1 080046Z 02003KT M00/M01 A3045 RMK A01 T10011005  RH  097%=      5-min Rain = 0
KEA1 080047Z 02003KT M00/M01 A3045 RMK A01 T10021005  RH  097%=      5-min Rain = 0
KEA1 080048Z 02004KT M00/M01 A3045 RMK A01 T10021005  RH  097%=      5-min Rain = 0
KEA1 080049Z 02004KT M00/M01 A3045 RMK A01 T10011005  RH  097%=      5-min Rain = 0
KEA1 080050Z 01004KT M00/M01 A3046 RMK A01 T10011005  RH  097%=      5-min Rain = 0
KEA1 080051Z 00004KT M00/M01 A3046 RMK A01 T10011005  RH  097%=      5-min Rain = 0
KEA1 080052Z 00004KT M00/M01 A3046 RMK A01 T10011005  RH  097%=      5-min Rain = 0
KEA1 080053Z 36003KT M00/M01 A3046 RMK A01 T10011005  RH  097%=      5-min Rain = 0
KEA1 080054Z 00003KT M00/M01 A3046 RMK A01 T10011005  RH  097%=      5-min Rain = 0
KEA1 080055Z 01004KT M00/M01 A3046 RMK A01 T10011005  RH  097%=      5-min Rain = 0
KEA1 080056Z 01004KT M00/M01 A3046 RMK A01 T10011005  RH  097%=      5-min Rain = 0
KEA1 080057Z 01004KT M00/M01 A3046 RMK A01 T10011005  RH  097%=      5-min Rain = 0
KEA1 080058Z 02005KT M00/M01 A3046 RMK A01 T10021005  RH  097%=      5-min Rain = 0
KEA1 080059Z 01004KT M00/M01 A3046 RMK A01 T10011005  RH  097%=      5-min Rain = 0
KEA1 080100Z 01005KT M00/M01 A3046 RMK A01 T10021005  RH  097%=      5-min Rain = 0
KEA1 080101Z 01004KT M00/M01 A3046 RMK A01 T10021005  RH  097%=      5-min Rain = 0
KEA1 080102Z 02005KT M00/M01 A3046 RMK A01 T10021005  RH  097%=      5-min Rain = 0
KEA1 080103Z 02005KT M00/M01 A3046 RMK A01 T10021005  RH  097%=      5-min Rain = 0
KEA1 080104Z 03005KT M00/M01 A3046 RMK A01 T10011005  RH  097%=      5-min Rain = 0
KEA1 080105Z 02005KT M00/M01 A3046 RMK A01 T10011005  RH  098%=      5-min Rain = 0
KEA1 080106Z 02004KT M00/M01 A3046 RMK A01 T10011005  RH  098%=      5-min Rain = 0
KEA1 080107Z 02003KT M00/M01 A3046 RMK A01 T10011005  RH  097%=      5-min Rain = 0
KEA1 080108Z 02004KT M00/M00 A3045 RMK A01 T10011004  RH  098%=      5-min Rain = 0
KEA1 080109Z 01004KT M00/M01 A3045 RMK A01 T10011005  RH  097%=      5-min Rain = 0
KEA1 080110Z 02005KT M00/M01 A3045 RMK A01 T10011005  RH  098%=      5-min Rain = 0
KEA1 080111Z 02005KT M00/M00 A3045 RMK A01 T10011004  RH  098%=      5-min Rain = 0
KEA1 080112Z 01005KT M00/M01 A3045 RMK A01 T10011005  RH  097%=      5-min Rain = 0
KEA1 080113Z 01006KT M00/M00 A3045 RMK A01 T10011004  RH  098%=      5-min Rain = 0
KEA1 080114Z 01006KT M00/M00 A3045 RMK A01 T10011004  RH  098%=      5-min Rain = 0
KEA1 080115Z 02006KT M00/M00 A3045 RMK A01 T10011004  RH  098%=      5-min Rain = 0
KEA1 080116Z 02006KT M00/M00 A3045 RMK A01 T10011004  RH  097%=      5-min Rain = 0
KEA1 080117Z 02006KT M00/M01 A3045 RMK A01 T10011005  RH  097%=      5-min Rain = 0
KEA1 080118Z 02006KT M00/M01 A3045 RMK A01 T10011005  RH  097%=      5-min Rain = 0
KEA1 080119Z 01005KT M00/M00 A3045 RMK A01 T10011004  RH  097%=      5-min Rain = 0
KEA1 080120Z 01006KT M00/M00 A3045 RMK A01 T10011004  RH  097%=      5-min Rain = 0
KEA1 080121Z 02006KT M00/M00 A3045 RMK A01 T10011004  RH  098%=      5-min Rain = 0
KEA1 080122Z 02007KT M00/M00 A3045 RMK A01 T10011004  RH  098%=      5-min Rain = 0
KEA1 080123Z 02006KT M00/M01 A3045 RMK A01 T10011005  RH  097%=      5-min Rain = 0
KEA1 080124Z 02006KT M00/M01 A3045 RMK A01 T10011005  RH  097%=      5-min Rain = 0
KEA1 080125Z 02006KT M00/M01 A3045 RMK A01 T10011005  RH  098%=      5-min Rain = 0
KEA1 080126Z 02006KT M00/M01 A3045 RMK A01 T10011005  RH  097%=      5-min Rain = 0
KEA1 080127Z 03006KT M00/M01 A3045 RMK A01 T10011005  RH  098%=      5-min Rain = 0
KEA1 080128Z 03006KT M00/M01 A3045 RMK A01 T10011005  RH  098%=      5-min Rain = 0
KEA1 080129Z 03005KT M00/M01 A3046 RMK A01 T10011005  RH  098%=      5-min Rain = 0
KEA1 080130Z 03004KT M00/M01 A3046 RMK A01 T10011005  RH  098%=      5-min Rain = 0
KEA1 080131Z 04005KT M00/M00 A3046 RMK A01 T10011004  RH  098%=      5-min Rain = 0
KEA1 080132Z 03004KT M00/M00 A3046 RMK A01 T10011004  RH  098%=      5-min Rain = 0
KEA1 080133Z 03004KT M00/M00 A3046 RMK A01 T10011004  RH  098%=      5-min Rain = 0
KEA1 080134Z 03005KT 00/00 A3045 RMK A01 T00-000-4  RH  098%=      5-min Rain = 0
KEA1 080135Z 03005KT 00/00 A3045 RMK A01 T00-000-4  RH  098%=      5-min Rain = 0
KEA1 080136Z 02006KT 00/00 A3045 RMK A01 T00-000-4  RH  098%=      5-min Rain = 0
KEA1 080137Z 02005KT 00/00 A3045 RMK A01 T00-000-4  RH  098%=      5-min Rain = 0
KEA1 080138Z 03005KT 00/00 A3045 RMK A01 T00-000-4  RH  098%=      5-min Rain = 0
KEA1 080139Z 01004KT 00/00 A3045 RMK A01 T00-000-4  RH  098%=      5-min Rain = 0
KEA1 080140Z 01005KT 00/00 A3045 RMK A01 T00-000-4  RH  098%=      5-min Rain = 0
KEA1 080141Z 01005KT 00/00 A3045 RMK A01 T000000-3  RH  098%=      5-min Rain = 0
KEA1 080142Z 01004KT 00/00 A3045 RMK A01 T000000-3  RH  098%=      5-min Rain = 0
KEA1 080143Z 02005KT 00/00 A3045 RMK A01 T000000-3  RH  098%=      5-min Rain = 0
KEA1 080144Z 01005KT 00/00 A3045 RMK A01 T000000-3  RH  098%=      5-min Rain = 0
KEA1 080145Z 01004KT 00/00 A3045 RMK A01 T000000-3  RH  098%=      5-min Rain = 0
KEA1 080146Z 01004KT 00/00 A3045 RMK A01 T00-000-3  RH  098%=      5-min Rain = 0
KEA1 080147Z 00005KT 00/00 A3045 RMK A01 T00-000-4  RH  098%=      5-min Rain = 0
KEA1 080148Z 00005KT 00/00 A3045 RMK A01 T000000-3  RH  098%=      5-min Rain = 0
KEA1 080149Z 00006KT 00/00 A3045 RMK A01 T000000-3  RH  098%=      5-min Rain = 0
KEA1 080150Z 01005KT 00/00 A3045 RMK A01 T000000-3  RH  098%=      5-min Rain = 0
KEA1 080151Z 01005KT 00/00 A3045 RMK A01 T000000-3  RH  098%=      5-min Rain = 0
KEA1 080152Z 01005KT 00/00 A3045 RMK A01 T000000-3  RH  098%=      5-min Rain = 0
KEA1 080153Z 01006KT 00/00 A3045 RMK A01 T000000-3  RH  098%=      5-min Rain = 0
KEA1 080154Z 01005KT 00/00 A3045 RMK A01 T000000-3  RH  098%=      5-min Rain = 0
KEA1 080155Z 01005KT 00/00 A3045 RMK A01 T000000-3  RH  098%=      5-min Rain = 0
KEA1 080156Z 01006KT 00/00 A3045 RMK A01 T00-000-4  RH  098%=      5-min Rain = 0
KEA1 080157Z 01006KT 00/00 A3045 RMK A01 T000000-3  RH  098%=      5-min Rain = 0
KEA1 080158Z 02006KT 00/00 A3045 RMK A01 T000000-3  RH  098%=      5-min Rain = 0
KEA1 080159Z 02006KT 00/00 A3045 RMK A01 T00-000-3  RH  098%=      5-min Rain = 0
KEA1 080200Z 02006KT 00/00 A3045 RMK A01 T000000-3  RH  098%=      5-min Rain = 0
KEA1 080201Z 01006KT 00/00 A3045 RMK A01 T000000-3  RH  098%=      5-min Rain = 0
KEA1 080202Z 01005KT 00/00 A3045 RMK A01 T000000-3  RH  098%=      5-min Rain = 0
KEA1 080203Z 01006KT 00/00 A3045 RMK A01 T000000-3  RH  098%=      5-min Rain = 0
KEA1 080204Z 00005KT 00/00 A3045 RMK A01 T000000-3  RH  098%=      5-min Rain = 0
KEA1 080205Z 01005KT 00/00 A3045 RMK A01 T000000-3  RH  098%=      5-min Rain = 0
KEA1 080206Z 01005KT 00/00 A3045 RMK A01 T000000-3  RH  098%=      5-min Rain = 0
KEA1 080207Z 02005KT 00/00 A3045 RMK A01 T000000-3  RH  098%=      5-min Rain = 0
KEA1 080208Z 03005KT 00/00 A3045 RMK A01 T000000-3  RH  098%=      5-min Rain = 0
KEA1 080209Z 02007KT 00/00 A3045 RMK A01 T000000-3  RH  098%=      5-min Rain = 0
KEA1 080210Z 02007KT 00/00 A3045 RMK A01 T000000-3  RH  098%=      5-min Rain = 0
KEA1 080211Z 01006KT 00/00 A3046 RMK A01 T000000-3  RH  098%=      5-min Rain = 0
KEA1 080212Z 02006KT 00/00 A3046 RMK A01 T000000-3  RH  098%=      5-min Rain = 0
KEA1 080213Z 02004KT 00/00 A3046 RMK A01 T000000-3  RH  098%=      5-min Rain = 0
KEA1 080214Z 02006KT 00/00 A3046 RMK A01 T000000-3  RH  098%=      5-min Rain = 0
KEA1 080215Z 02006KT 00/00 A3046 RMK A01 T000000-3  RH  098%=      5-min Rain = 0
KEA1 080216Z 02005KT 00/00 A3046 RMK A01 T000000-3  RH  098%=      5-min Rain = 0
KEA1 080217Z 03005KT 00/00 A3046 RMK A01 T000000-3  RH  098%=      5-min Rain = 0
KEA1 080218Z 03005KT 00/00 A3046 RMK A01 T000000-3  RH  098%=      5-min Rain = 0
KEA1 080219Z 03005KT 00/00 A3046 RMK A01 T000000-3  RH  098%=      5-min Rain = 0
KEA1 080220Z 03005KT 00/00 A3046 RMK A01 T000000-3  RH  098%=      5-min Rain = 0
KEA1 080221Z 03005KT 00/00 A3046 RMK A01 T000000-3  RH  098%=      5-min Rain = 0
KEA1 080222Z 04005KT 00/00 A3046 RMK A01 T000000-3  RH  098%=      5-min Rain = 0
KEA1 080223Z 04005KT 00/00 A3046 RMK A01 T000000-3  RH  098%=      5-min Rain = 0
KEA1 080224Z 03005KT 00/00 A3046 RMK A01 T000000-3  RH  098%=      5-min Rain = 0
KEA1 080225Z 03006KT 00/00 A3046 RMK A01 T000000-3  RH  098%=      5-min Rain = 0
KEA1 080226Z 03006KT 00/00 A3046 RMK A01 T000000-3  RH  098%=      5-min Rain = 0
KEA1 080227Z 03005KT 00/00 A3045 RMK A01 T000000-3  RH  098%=      5-min Rain = 0
KEA1 080228Z 03005KT 00/00 A3045 RMK A01 T000000-3  RH  098%=      5-min Rain = 0
KEA1 080229Z 03005KT 00/00 A3046 RMK A01 T000000-3  RH  098%=      5-min Rain = 0
KEA1 080230Z 03005KT 00/M00 A3046 RMK A01 T00011002  RH  098%=      5-min Rain = 0
KEA1 080231Z 04005KT 00/00 A3046 RMK A01 T000000-3  RH  098%=      5-min Rain = 0
KEA1 080232Z 03004KT 00/M00 A3046 RMK A01 T00011003  RH  098%=      5-min Rain = 0
KEA1 080233Z 04003KT 00/00 A3046 RMK A01 T000000-3  RH  098%=      5-min Rain = 0
KEA1 080234Z 04003KT 00/M00 A3046 RMK A01 T00011002  RH  098%=      5-min Rain = 0
KEA1 080235Z 03002KT 00/M00 A3046 RMK A01 T00011002  RH  098%=      5-min Rain = 0
KEA1 080236Z 03003KT 00/M00 A3046 RMK A01 T00011002  RH  098%=      5-min Rain = 0
KEA1 080237Z 03003KT 00/M00 A3046 RMK A01 T00011002  RH  098%=      5-min Rain = 0
KEA1 080238Z 02003KT 00/M00 A3046 RMK A01 T00011002  RH  098%=      5-min Rain = 0
KEA1 080239Z 01004KT 00/M00 A3046 RMK A01 T00011002  RH  098%=      5-min Rain = 0
KEA1 080240Z 02004KT 00/M00 A3046 RMK A01 T00011002  RH  098%=      5-min Rain = 0
KEA1 080241Z 01004KT 00/M00 A3046 RMK A01 T00011002  RH  098%=      5-min Rain = 0
KEA1 080242Z 02004KT 00/M00 A3046 RMK A01 T00011002  RH  098%=      5-min Rain = 0
KEA1 080243Z 01003KT 00/M00 A3046 RMK A01 T00011002  RH  098%=      5-min Rain = 0
KEA1 080244Z 02003KT 00/M00 A3046 RMK A01 T00011002  RH  098%=      5-min Rain = 0
KEA1 080245Z 01003KT 00/M00 A3046 RMK A01 T00011002  RH  098%=      5-min Rain = 0
KEA1 080246Z 01004KT 00/M00 A3046 RMK A01 T00011002  RH  098%=      5-min Rain = 0
KEA1 080247Z 01005KT 00/M00 A3046 RMK A01 T00011002  RH  098%=      5-min Rain = 0
KEA1 080248Z 01004KT 00/M00 A3046 RMK A01 T00011002  RH  098%=      5-min Rain = 0
KEA1 080249Z 01004KT 00/M00 A3046 RMK A01 T00011002  RH  098%=      5-min Rain = 0
KEA1 080250Z 01005KT 00/M00 A3046 RMK A01 T00011002  RH  098%=      5-min Rain = 0
KEA1 080251Z 02005KT 00/M00 A3046 RMK A01 T00011002  RH  098%=      5-min Rain = 0
KEA1 080252Z 02005KT 00/M00 A3046 RMK A01 T00011002  RH  098%=      5-min Rain = 0
KEA1 080253Z 02005KT 00/M00 A3046 RMK A01 T00011002  RH  098%=      5-min Rain = 0
KEA1 080254Z 02005KT 00/M00 A3046 RMK A01 T00011002  RH  098%=      5-min Rain = 0
KEA1 080255Z 01004KT 00/M00 A3046 RMK A01 T00011002  RH  098%=      5-min Rain = 0
KEA1 080256Z 01004KT 00/M00 A3046 RMK A01 T00011002  RH  098%=      5-min Rain = 0
KEA1 080257Z 01004KT 00/M00 A3046 RMK A01 T00011002  RH  098%=      5-min Rain = 0
KEA1 080258Z 02004KT 00/M00 A3046 RMK A01 T00011002  RH  098%=      5-min Rain = 0
KEA1 080259Z 02004KT 00/M00 A3046 RMK A01 T00011002  RH  098%=      5-min Rain = 0
KEA1 080300Z 02004KT 00/M00 A3046 RMK A01 T00021001  RH  098%=      5-min Rain = 0
KEA1 080301Z 01004KT 00/M00 A3046 RMK A01 T00021001  RH  098%=      5-min Rain = 0
KEA1 080302Z 01004KT 00/M00 A3047 RMK A01 T00021001  RH  098%=      5-min Rain = 0
KEA1 080303Z 01004KT 00/M00 A3047 RMK A01 T00021001  RH  098%=      5-min Rain = 0
KEA1 080304Z 01005KT 00/M00 A3046 RMK A01 T00021001  RH  098%=      5-min Rain = 0
KEA1 080305Z 01006KT 00/M00 A3046 RMK A01 T00021001  RH  098%=      5-min Rain = 0
KEA1 080306Z 01006KT 00/M00 A3046 RMK A01 T00021001  RH  098%=      5-min Rain = 0
KEA1 080307Z 01005KT 00/M00 A3047 RMK A01 T00011002  RH  098%=      5-min Rain = 0
KEA1 080308Z 02005KT 00/M00 A3047 RMK A01 T00011002  RH  098%=      5-min Rain = 0
KEA1 080309Z 02005KT 00/M00 A3047 RMK A01 T00011002  RH  098%=      5-min Rain = 0
KEA1 080310Z 02006KT 00/M00 A3047 RMK A01 T00021001  RH  098%=      5-min Rain = 0
KEA1 080311Z 02006KT 00/M00 A3046 RMK A01 T00021001  RH  098%=      5-min Rain = 0
KEA1 080312Z 02006KT 00/M00 A3046 RMK A01 T00011002  RH  098%=      5-min Rain = 0
KEA1 080313Z 02006KT 00/M00 A3046 RMK A01 T00021001  RH  098%=      5-min Rain = 0
KEA1 080314Z 02005KT 00/M00 A3046 RMK A01 T00021001  RH  098%=      5-min Rain = 0
KEA1 080315Z 02005KT 00/M00 A3046 RMK A01 T00021001  RH  098%=      5-min Rain = 0
KEA1 080316Z 02005KT 00/M00 A3046 RMK A01 T00011001  RH  098%=      5-min Rain = 0
KEA1 080317Z 01006KT 00/M00 A3047 RMK A01 T00021001  RH  098%=      5-min Rain = 0
KEA1 080318Z 02005KT 00/M00 A3047 RMK A01 T00011002  RH  098%=      5-min Rain = 0
KEA1 080319Z 01005KT 00/M00 A3047 RMK A01 T00021001  RH  098%=      5-min Rain = 0
KEA1 080320Z 02005KT 00/M00 A3047 RMK A01 T00011002  RH  098%=      5-min Rain = 0
KEA1 080321Z 02005KT 00/M00 A3047 RMK A01 T00021001  RH  098%=      5-min Rain = 0
KEA1 080322Z 03006KT 00/M00 A3047 RMK A01 T00021001  RH  098%=      5-min Rain = 0
KEA1 080323Z 02005KT 00/M00 A3047 RMK A01 T00021001  RH  098%=      5-min Rain = 0
KEA1 080324Z 03005KT 00/M00 A3047 RMK A01 T00021001  RH  098%=      5-min Rain = 0
KEA1 080325Z 02004KT 00/M00 A3047 RMK A01 T00021001  RH  098%=      5-min Rain = 0
KEA1 080326Z 02005KT 00/M00 A3047 RMK A01 T00021001  RH  098%=      5-min Rain = 0
KEA1 080327Z 02006KT 00/M00 A3047 RMK A01 T00021001  RH  098%=      5-min Rain = 0
KEA1 080328Z 02005KT 00/M00 A3047 RMK A01 T00021001  RH  098%=      5-min Rain = 0
KEA1 080329Z 02005KT 00/M00 A3047 RMK A01 T00021001  RH  098%=      5-min Rain = 0
KEA1 080330Z 02005KT 00/M00 A3047 RMK A01 T00021001  RH  098%=      5-min Rain = 0
KEA1 080331Z 01005KT 00/M00 A3047 RMK A01 T00021001  RH  098%=      5-min Rain = 0
KEA1 080332Z 02004KT 00/M00 A3047 RMK A01 T00011001  RH  098%=      5-min Rain = 0
KEA1 080333Z 01004KT 00/M00 A3047 RMK A01 T00021001  RH  098%=      5-min Rain = 0
KEA1 080334Z 01005KT 00/M00 A3047 RMK A01 T00021001  RH  098%=      5-min Rain = 0
KEA1 080335Z 02005KT 00/M00 A3047 RMK A01 T00011001  RH  098%=      5-min Rain = 0
KEA1 080336Z 02005KT 00/M00 A3047 RMK A01 T00021001  RH  098%=      5-min Rain = 0
KEA1 080337Z 02005KT 00/M00 A3047 RMK A01 T00011001  RH  098%=      5-min Rain = 0
KEA1 080338Z 03005KT 00/M00 A3047 RMK A01 T00021001  RH  098%=      5-min Rain = 0
KEA1 080339Z 02006KT 00/M00 A3047 RMK A01 T00021001  RH  098%=      5-min Rain = 0
KEA1 080340Z 02005KT 00/M00 A3047 RMK A01 T00021001  RH  098%=      5-min Rain = 0
KEA1 080341Z 02005KT 00/M00 A3047 RMK A01 T00021001  RH  098%=      5-min Rain = 0
KEA1 080342Z 02006KT 00/M00 A3047 RMK A01 T00021001  RH  098%=      5-min Rain = 0
KEA1 080343Z 02006KT 00/M00 A3047 RMK A01 T00021001  RH  098%=      5-min Rain = 0
KEA1 080344Z 02006KT 00/M00 A3047 RMK A01 T00021001  RH  098%=      5-min Rain = 0
KEA1 080345Z 02006KT 00/M00 A3047 RMK A01 T00011001  RH  098%=      5-min Rain = 0
KEA1 080346Z 02006KT 00/M00 A3047 RMK A01 T00011002  RH  098%=      5-min Rain = 0
KEA1 080347Z 02006KT 00/M00 A3047 RMK A01 T00011002  RH  098%=      5-min Rain = 0
KEA1 080348Z 03005KT 00/M00 A3047 RMK A01 T00011002  RH  098%=      5-min Rain = 0
KEA1 080349Z 03006KT 00/M00 A3047 RMK A01 T00011002  RH  098%=      5-min Rain = 0
KEA1 080350Z 03005KT 00/M00 A3047 RMK A01 T00011002  RH  098%=      5-min Rain = 0
KEA1 080351Z 02006KT 00/M00 A3047 RMK A01 T00011002  RH  098%=      5-min Rain = 0
KEA1 080352Z 03005KT 00/M00 A3047 RMK A01 T00021001  RH  098%=      5-min Rain = 0
KEA1 080353Z 03004KT 00/M00 A3047 RMK A01 T00011002  RH  098%=      5-min Rain = 0
KEA1 080354Z 04006KT 00/M00 A3047 RMK A01 T00011002  RH  098%=      5-min Rain = 0
KEA1 080355Z 03005KT 00/M00 A3047 RMK A01 T00011002  RH  098%=      5-min Rain = 0
KEA1 080356Z 03006KT 00/M00 A3047 RMK A01 T00011002  RH  098%=      5-min Rain = 0
KEA1 080357Z 04006KT 00/M00 A3047 RMK A01 T00011002  RH  098%=      5-min Rain = 0
KEA1 080358Z 03006KT 00/M00 A3047 RMK A01 T00011002  RH  098%=      5-min Rain = 0
KEA1 080359Z 04005KT 00/M00 A3047 RMK A01 T00011002  RH  098%=      5-min Rain = 0
KEA1 080400Z 04005KT 00/M00 A3047 RMK A01 T00011002  RH  098%=      5-min Rain = 0
KEA1 080401Z 04005KT 00/M00 A3047 RMK A01 T00011002  RH  098%=      5-min Rain = 0
KEA1 080402Z 05005KT 00/M00 A3047 RMK A01 T00011002  RH  098%=      5-min Rain = 0
KEA1 080403Z 04005KT 00/M00 A3047 RMK A01 T00011002  RH  098%=      5-min Rain = 0
KEA1 080404Z 04004KT 00/M00 A3047 RMK A01 T00011002  RH  098%=      5-min Rain = 0
KEA1 080405Z 04004KT 00/M00 A3047 RMK A01 T00011002  RH  098%=      5-min Rain = 0
KEA1 080406Z 04004KT 00/M00 A3047 RMK A01 T00011002  RH  098%=      5-min Rain = 0
KEA1 080407Z 04005KT 00/M00 A3047 RMK A01 T00011002  RH  098%=      5-min Rain = 0
KEA1 080408Z 04006KT 00/M00 A3047 RMK A01 T00021001  RH  098%=      5-min Rain = 0
KEA1 080409Z 04006KT 00/M00 A3047 RMK A01 T00011002  RH  098%=      5-min Rain = 0
KEA1 080410Z 04005KT 00/M00 A3047 RMK A01 T00011002  RH  098%=      5-min Rain = 0
KEA1 080411Z 04006KT 00/M00 A3047 RMK A01 T00011002  RH  098%=      5-min Rain = 0
KEA1 080412Z 04006KT 00/00 A3047 RMK A01 T000000-3  RH  098%=      5-min Rain = 0
KEA1 080413Z 04005KT 00/00 A3047 RMK A01 T000000-3  RH  098%=      5-min Rain = 0
KEA1 080414Z 04005KT 00/00 A3047 RMK A01 T000000-3  RH  098%=      5-min Rain = 0
KEA1 080415Z 04004KT 00/00 A3047 RMK A01 T000000-3  RH  098%=      5-min Rain = 0
KEA1 080416Z 04006KT 00/00 A3047 RMK A01 T000000-3  RH  098%=      5-min Rain = 0
KEA1 080417Z 04005KT 00/00 A3047 RMK A01 T000000-3  RH  098%=      5-min Rain = 0
KEA1 080418Z 04005KT 00/00 A3047 RMK A01 T00-000-3  RH  098%=      5-min Rain = 0
KEA1 080419Z 05005KT M00/M00 A3047 RMK A01 T10011004  RH  098%=      5-min Rain = 0
KEA1 080420Z 06005KT 00/00 A3047 RMK A01 T00-000-3  RH  098%=      5-min Rain = 0
KEA1 080421Z 06005KT 00/00 A3047 RMK A01 T00-000-3  RH  098%=      5-min Rain = 0
KEA1 080422Z 06005KT 00/00 A3047 RMK A01 T00-000-3  RH  098%=      5-min Rain = 0
KEA1 080423Z 06005KT 00/00 A3047 RMK A01 T00-000-3  RH  098%=      5-min Rain = 0
KEA1 080424Z 06004KT 00/00 A3047 RMK A01 T00-000-3  RH  098%=      5-min Rain = 0
KEA1 080425Z 06004KT M00/M00 A3047 RMK A01 T10011004  RH  098%=      5-min Rain = 0
KEA1 080426Z 07005KT 00/00 A3047 RMK A01 T00-000-3  RH  098%=      5-min Rain = 0
KEA1 080427Z 06005KT 00/00 A3047 RMK A01 T00-000-3  RH  098%=      5-min Rain = 0
KEA1 080428Z 06005KT 00/00 A3047 RMK A01 T00-000-3  RH  098%=      5-min Rain = 0
KEA1 080429Z 06005KT 00/00 A3047 RMK A01 T00-000-3  RH  098%=      5-min Rain = 0
KEA1 080430Z 06005KT 00/00 A3047 RMK A01 T00-000-3  RH  098%=      5-min Rain = 0
KEA1 080431Z 07005KT 00/00 A3047 RMK A01 T00-000-3  RH  098%=      5-min Rain = 0
KEA1 080432Z 06005KT M00/M00 A3047 RMK A01 T10011004  RH  098%=      5-min Rain = 0
KEA1 080433Z 07004KT 00/00 A3047 RMK A01 T00-000-3  RH  098%=      5-min Rain = 0
KEA1 080434Z 07004KT 00/00 A3047 RMK A01 T00-000-4  RH  098%=      5-min Rain = 0
KEA1 080435Z 07004KT 00/00 A3047 RMK A01 T00-000-3  RH  098%=      5-min Rain = 0
KEA1 080436Z 06004KT M00/M00 A3047 RMK A01 T10011004  RH  098%=      5-min Rain = 0
KEA1 080437Z 06005KT 00/00 A3047 RMK A01 T00-000-3  RH  098%=      5-min Rain = 0
KEA1 080438Z 06005KT 00/00 A3047 RMK A01 T00-000-3  RH  098%=      5-min Rain = 0
KEA1 080439Z 06004KT 00/00 A3047 RMK A01 T00-000-3  RH  098%=      5-min Rain = 0
KEA1 080440Z 06003KT 00/00 A3047 RMK A01 T00-000-3  RH  098%=      5-min Rain = 0
KEA1 080441Z 06004KT 00/00 A3047 RMK A01 T000000-3  RH  098%=      5-min Rain = 0
KEA1 080442Z 05005KT 00/M00 A3047 RMK A01 T00011002  RH  098%=      5-min Rain = 0
KEA1 080443Z 05004KT 00/M00 A3047 RMK A01 T00011002  RH  098%=      5-min Rain = 0
KEA1 080444Z 05004KT 00/00 A3047 RMK A01 T000000-3  RH  098%=      5-min Rain = 0
KEA1 080445Z 05004KT 00/00 A3047 RMK A01 T000000-3  RH  098%=      5-min Rain = 0
KEA1 080446Z 05004KT 00/00 A3047 RMK A01 T000000-3  RH  098%=      5-min Rain = 0
KEA1 080447Z 05004KT 00/M00 A3047 RMK A01 T00011003  RH  098%=      5-min Rain = 0
KEA1 080448Z 06004KT 00/M00 A3047 RMK A01 T00011002  RH  098%=      5-min Rain = 0
KEA1 080449Z 05004KT 00/M00 A3047 RMK A01 T00011002  RH  098%=      5-min Rain = 0
KEA1 080450Z 05004KT 00/M00 A3047 RMK A01 T00011002  RH  098%=      5-min Rain = 0
KEA1 080451Z 05004KT 00/M00 A3047 RMK A01 T00011002  RH  098%=      5-min Rain = 0
KEA1 080452Z 05004KT 00/M00 A3047 RMK A01 T00011002  RH  098%=      5-min Rain = 0
KEA1 080453Z 05003KT 00/M00 A3047 RMK A01 T00021001  RH  098%=      5-min Rain = 0
KEA1 080454Z 05004KT 00/M00 A3047 RMK A01 T00011002  RH  098%=      5-min Rain = 0
KEA1 080455Z 05004KT 00/M00 A3047 RMK A01 T00011002  RH  098%=      5-min Rain = 0
KEA1 080456Z 05003KT 00/M00 A3047 RMK A01 T00011002  RH  098%=      5-min Rain = 0
KEA1 080457Z 04003KT 00/M00 A3048 RMK A01 T00011002  RH  098%=      5-min Rain = 0
KEA1 080458Z 04003KT 00/M00 A3048 RMK A01 T00011002  RH  098%=      5-min Rain = 0
KEA1 080459Z 04005KT 00/M00 A3048 RMK A01 T00011002  RH  098%=      5-min Rain = 0
KEA1 080500Z 05005KT 00/M00 A3047 RMK A01 T00011002  RH  098%=      5-min Rain = 0
KEA1 080501Z 05004KT 00/M00 A3048 RMK A01 T00011002  RH  098%=      5-min Rain = 0
KEA1 080502Z 05005KT 00/M00 A3048 RMK A01 T00011002  RH  098%=      5-min Rain = 0
KEA1 080503Z 06005KT 00/M00 A3047 RMK A01 T00011002  RH  098%=      5-min Rain = 0
KEA1 080504Z 06006KT 00/00 A3047 RMK A01 T000000-3  RH  098%=      5-min Rain = 0
KEA1 080505Z 06005KT 00/00 A3047 RMK A01 T00-000-4  RH  098%=      5-min Rain = 0
KEA1 080506Z 05004KT 00/00 A3047 RMK A01 T000000-3  RH  098%=      5-min Rain = 0
KEA1 080507Z 07005KT 00/00 A3047 RMK A01 T00-000-3  RH  098%=      5-min Rain = 0
KEA1 080508Z 07006KT 00/00 A3047 RMK A01 T00-000-4  RH  098%=      5-min Rain = 0
KEA1 080509Z 07005KT M00/M00 A3047 RMK A01 T10011004  RH  098%=      5-min Rain = 0
KEA1 080510Z 07005KT M00/M00 A3047 RMK A01 T10011004  RH  098%=      5-min Rain = 0
KEA1 080511Z 07005KT M00/M00 A3047 RMK A01 T10011004  RH  098%=      5-min Rain = 0
KEA1 080512Z 07005KT M00/M00 A3047 RMK A01 T10011004  RH  098%=      5-min Rain = 0
KEA1 080513Z 07005KT M00/M01 A3047 RMK A01 T10011005  RH  098%=      5-min Rain = 0
KEA1 080514Z 07004KT M00/M00 A3047 RMK A01 T10011004  RH  098%=      5-min Rain = 0
KEA1 080515Z 06004KT M00/M00 A3047 RMK A01 T10011004  RH  098%=      5-min Rain = 0
KEA1 080516Z 06004KT M00/M00 A3047 RMK A01 T10011004  RH  098%=      5-min Rain = 0
KEA1 080517Z 06004KT M00/M00 A3047 RMK A01 T10011004  RH  098%=      5-min Rain = 0
KEA1 080518Z 06005KT M00/M00 A3047 RMK A01 T10011004  RH  098%=      5-min Rain = 0
KEA1 080519Z 06005KT M00/M00 A3047 RMK A01 T10011004  RH  098%=      5-min Rain = 0
KEA1 080520Z 06004KT M00/M01 A3047 RMK A01 T10011005  RH  098%=      5-min Rain = 0
KEA1 080521Z 06005KT M00/M00 A3047 RMK A01 T10011004  RH  098%=      5-min Rain = 0
KEA1 080522Z 06004KT M00/M01 A3047 RMK A01 T10011005  RH  098%=      5-min Rain = 0
KEA1 080523Z 06005KT M00/M01 A3047 RMK A01 T10021005  RH  098%=      5-min Rain = 0
KEA1 080524Z 06004KT M00/M01 A3047 RMK A01 T10021005  RH  098%=      5-min Rain = 0
KEA1 080525Z 06004KT M00/M01 A3047 RMK A01 T10021005  RH  098%=      5-min Rain = 0
KEA1 080526Z 06005KT M00/M00 A3047 RMK A01 T10011004  RH  098%=      5-min Rain = 0
KEA1 080527Z 06005KT M00/M00 A3047 RMK A01 T10011004  RH  098%=      5-min Rain = 0
KEA1 080528Z 06004KT M00/M00 A3047 RMK A01 T10011004  RH  098%=      5-min Rain = 0
KEA1 080529Z 06004KT M00/M00 A3047 RMK A01 T10011004  RH  098%=      5-min Rain = 0
KEA1 080530Z 06004KT M00/M00 A3047 RMK A01 T10011004  RH  098%=      5-min Rain = 0
KEA1 080531Z 06004KT M00/M00 A3047 RMK A01 T10011004  RH  098%=      5-min Rain = 0
KEA1 080532Z 06004KT M00/M01 A3047 RMK A01 T10011005  RH  098%=      5-min Rain = 0
KEA1 080533Z 04004KT M00/M01 A3047 RMK A01 T10021005  RH  098%=      5-min Rain = 0
KEA1 080534Z 04004KT M00/M00 A3046 RMK A01 T10011004  RH  098%=      5-min Rain = 0
KEA1 080535Z 04004KT M00/M01 A3047 RMK A01 T10011005  RH  098%=      5-min Rain = 0
KEA1 080536Z 04004KT M00/M01 A3047 RMK A01 T10011005  RH  098%=      5-min Rain = 0
KEA1 080537Z 04004KT M00/M01 A3047 RMK A01 T10011005  RH  098%=      5-min Rain = 0
KEA1 080538Z 04003KT M00/M00 A3047 RMK A01 T10011004  RH  098%=      5-min Rain = 0.01
KEA1 080539Z 04003KT M00/M00 A3047 RMK A01 T10011004  RH  098%=      5-min Rain = 0
KEA1 080540Z 04003KT M00/M00 A3047 RMK A01 T10011004  RH  098%=      5-min Rain = 0
KEA1 080541Z 03003KT M00/M00 A3047 RMK A01 T10011004  RH  098%=      5-min Rain = 0
KEA1 080542Z 04004KT M00/M00 A3047 RMK A01 T10011004  RH  098%=      5-min Rain = 0
KEA1 080543Z 04004KT M00/M00 A3046 RMK A01 T10011004  RH  098%=      5-min Rain = 0
KEA1 080544Z 04004KT M00/M00 A3046 RMK A01 T10011004  RH  098%=      5-min Rain = 0
KEA1 080545Z 04003KT M00/M00 A3046 RMK A01 T10011004  RH  098%=      5-min Rain = 0
KEA1 080546Z 03003KT M00/M01 A3046 RMK A01 T10011005  RH  098%=      5-min Rain = 0
KEA1 080547Z 03002KT M00/M01 A3046 RMK A01 T10011005  RH  098%=      5-min Rain = 0
KEA1 080548Z 03002KT M00/M00 A3046 RMK A01 T10011004  RH  098%=      5-min Rain = 0
KEA1 080549Z 03003KT M00/M01 A3046 RMK A01 T10011005  RH  098%=      5-min Rain = 0
KEA1 080550Z 03002KT M00/M01 A3046 RMK A01 T10011005  RH  098%=      5-min Rain = 0
KEA1 080551Z 02002KT M00/M00 A3046 RMK A01 T10011004  RH  098%=      5-min Rain = 0
KEA1 080552Z 03002KT M00/M01 A3046 RMK A01 T10021005  RH  098%=      5-min Rain = 0
KEA1 080553Z 03002KT M00/M01 A3046 RMK A01 T10021005  RH  098%=      5-min Rain = 0
KEA1 080554Z 03002KT M00/M01 A3046 RMK A01 T10021005  RH  098%=      5-min Rain = 0
KEA1 080555Z 04002KT M00/M00 A3046 RMK A01 T10011004  RH  098%=      5-min Rain = 0
KEA1 080556Z 03002KT M00/M00 A3046 RMK A01 T10011004  RH  098%=      5-min Rain = 0
KEA1 080557Z 04002KT M00/M00 A3046 RMK A01 T10011004  RH  098%=      5-min Rain = 0
KEA1 080558Z 03002KT M00/M01 A3046 RMK A01 T10011005  RH  098%=      5-min Rain = 0
KEA1 080559Z 03002KT M00/M00 A3046 RMK A01 T10011004  RH  098%=      5-min Rain = 0

Page generated in 0.1277 seconds.